Wetterdaten: Mittwoch, 10.08.2022
Datum Zeit Temp. Aussen Temp. o. S. Temp +5cm Feuchte Auss Luftdruck Regen Sonnenschein Regendauer Solar Windben Empfang
10.08.2022 00:00 21,8 C 20,6 C 17,2 C 64 % 1026,3 hPa 0,0 l/m 0 min 0 min 0 W/m 6,4 km/h (2 Bft) 100,00 %
10.08.2022 00:02 21,8 C 20,6 C 17,2 C 64 % 1026,3 hPa 0,0 l/m 0 min 0 min 0 W/m 0,0 km/h (0 Bft) 13,33 %
10.08.2022 00:04 21,8 C 20,6 C 17,2 C 64 % 1026,4 hPa 0,0 l/m 0 min 0 min 0 W/m 3,2 km/h (1 Bft) 81,82 %
10.08.2022 00:08 21,8 C 20,6 C 17,2 C 64 % 1026,3 hPa 0,0 l/m 0 min 0 min 0 W/m 9,7 km/h (2 Bft) 96,81 %
10.08.2022 00:10 21,8 C 20,6 C 17,2 C 64 % 1026,3 hPa 0,0 l/m 0 min 0 min 0 W/m 6,4 km/h (2 Bft) 100,00 %
10.08.2022 00:12 21,8 C 20,6 C 17,2 C 64 % 1026,3 hPa 0,0 l/m 0 min 0 min 0 W/m 6,4 km/h (2 Bft) 100,00 %
10.08.2022 00:14 21,8 C 20,6 C 17,2 C 64 % 1026,3 hPa 0,0 l/m 0 min 0 min 0 W/m 6,4 km/h (2 Bft) 97,87 %
10.08.2022 00:16 21,8 C 20,6 C 17,2 C 64 % 1026,4 hPa 0,0 l/m 0 min 0 min 0 W/m 6,4 km/h (2 Bft) 100,00 %
10.08.2022 00:18 21,7 C 20,6 C 17,2 C 64 % 1026,4 hPa 0,0 l/m 0 min 0 min 0 W/m 3,2 km/h (1 Bft) 100,00 %
10.08.2022 00:20 21,7 C 20,6 C 17,2 C 64 % 1026,4 hPa 0,0 l/m 0 min 0 min 0 W/m 6,4 km/h (2 Bft) 100,00 %
10.08.2022 00:22 21,7 C 20,6 C 17,2 C 64 % 1026,4 hPa 0,0 l/m 0 min 0 min 0 W/m 6,4 km/h (2 Bft) 97,87 %
10.08.2022 00:24 21,7 C 20,6 C 17,2 C 64 % 1026,4 hPa 0,0 l/m 0 min 0 min 0 W/m 6,4 km/h (2 Bft) 97,83 %
10.08.2022 00:26 21,7 C 20,6 C 17,2 C 64 % 1026,4 hPa 0,0 l/m 0 min 0 min 0 W/m 16,1 km/h (3 Bft) 95,74 %
10.08.2022 00:28 21,7 C 20,6 C 17,2 C 64 % 1026,4 hPa 0,0 l/m 0 min 0 min 0 W/m 6,4 km/h (2 Bft) 97,87 %
10.08.2022 00:30 21,7 C 20,6 C 17,2 C 64 % 1026,4 hPa 0,0 l/m 0 min 0 min 0 W/m 3,2 km/h (1 Bft) 97,87 %
10.08.2022 00:32 21,7 C 20,6 C 17,2 C 64 % 1026,4 hPa 0,0 l/m 0 min 0 min 0 W/m 6,4 km/h (2 Bft) 97,87 %
10.08.2022 00:34 21,6 C 20,6 C 17,2 C 64 % 1026,4 hPa 0,0 l/m 0 min 0 min 0 W/m 6,4 km/h (2 Bft) 97,87 %
10.08.2022 00:36 21,6 C 20,6 C 17,2 C 64 % 1026,4 hPa 0,0 l/m 0 min 0 min 0 W/m 12,9 km/h (3 Bft) 97,83 %
10.08.2022 00:38 21,6 C 20,6 C 17,2 C 64 % 1026,4 hPa 0,0 l/m 0 min 0 min 0 W/m 3,2 km/h (1 Bft) 97,87 %
10.08.2022 00:40 21,6 C 20,6 C 17,2 C 64 % 1026,4 hPa 0,0 l/m 0 min 0 min 0 W/m 22,5 km/h (4 Bft) 97,87 %
10.08.2022 00:42 21,6 C 20,6 C 17,2 C 64 % 1026,4 hPa 0,0 l/m 0 min 0 min 0 W/m 6,4 km/h (2 Bft) 97,87 %
10.08.2022 00:44 21,6 C 20,6 C 17,2 C 64 % 1026,4 hPa 0,0 l/m 0 min 0 min 0 W/m 9,7 km/h (2 Bft) 97,87 %
10.08.2022 00:46 21,6 C 20,6 C 17,2 C 64 % 1026,4 hPa 0,0 l/m 0 min 0 min 0 W/m 6,4 km/h (2 Bft) 97,87 %
10.08.2022 00:48 21,6 C 20,6 C 17,2 C 64 % 1026,4 hPa 0,0 l/m 0 min 0 min 0 W/m 9,7 km/h (2 Bft) 95,65 %
10.08.2022 00:50 21,6 C 20,6 C 17,2 C 64 % 1026,4 hPa 0,0 l/m 0 min 0 min 0 W/m 3,2 km/h (1 Bft) 97,87 %
10.08.2022 00:52 21,6 C 20,6 C 17,2 C 65 % 1026,4 hPa 0,0 l/m 0 min 0 min 0 W/m 6,4 km/h (2 Bft) 95,74 %
10.08.2022 00:54 21,6 C 20,6 C 17,2 C 65 % 1026,4 hPa 0,0 l/m 0 min 0 min 0 W/m 6,4 km/h (2 Bft) 97,87 %
10.08.2022 00:56 21,6 C 20,6 C 16,7 C 65 % 1026,4 hPa 0,0 l/m 0 min 0 min 0 W/m 6,4 km/h (2 Bft) 97,87 %
10.08.2022 00:58 21,5 C 20,6 C 16,7 C 65 % 1026,4 hPa 0,0 l/m 0 min 0 min 0 W/m 9,7 km/h (2 Bft) 97,87 %
10.08.2022 01:00 21,5 C 20,6 C 16,7 C 65 % 1026,4 hPa 0,0 l/m 0 min 0 min 0 W/m 9,7 km/h (2 Bft) 95,65 %
10.08.2022 01:02 21,5 C 20,6 C 16,7 C 65 % 1026,5 hPa 0,0 l/m 0 min 0 min 0 W/m 3,2 km/h (1 Bft) 93,62 %
10.08.2022 01:04 21,4 C 20,6 C 16,7 C 65 % 1026,5 hPa 0,0 l/m 0 min 0 min 0 W/m 6,4 km/h (2 Bft) 95,74 %
10.08.2022 01:06 21,4 C 20,6 C 16,7 C 65 % 1026,4 hPa 0,0 l/m 0 min 0 min 0 W/m 12,9 km/h (3 Bft) 93,62 %
10.08.2022 01:08 21,4 C 20,6 C 16,7 C 65 % 1026,4 hPa 0,0 l/m 0 min 0 min 0 W/m 6,4 km/h (2 Bft) 95,74 %
10.08.2022 01:10 21,4 C 20,6 C 16,7 C 65 % 1026,4 hPa 0,0 l/m 0 min 0 min 0 W/m 19,3 km/h (3 Bft) 97,87 %
10.08.2022 01:12 21,4 C 20,0 C 16,7 C 65 % 1026,4 hPa 0,0 l/m 0 min 0 min 0 W/m 6,4 km/h (2 Bft) 100,00 %
10.08.2022 01:14 21,3 C 20,0 C 16,7 C 65 % 1026,4 hPa 0,0 l/m 0 min 0 min 0 W/m 6,4 km/h (2 Bft) 97,87 %
10.08.2022 01:16 21,3 C 20,0 C 16,7 C 65 % 1026,4 hPa 0,0 l/m 0 min 0 min 0 W/m 12,9 km/h (3 Bft) 97,87 %
10.08.2022 01:18 21,3 C 20,0 C 16,7 C 65 % 1026,3 hPa 0,0 l/m 0 min 0 min 0 W/m 6,4 km/h (2 Bft) 97,87 %
10.08.2022 01:20 21,3 C 20,0 C 16,7 C 65 % 1026,4 hPa 0,0 l/m 0 min 0 min 0 W/m 12,9 km/h (3 Bft) 97,87 %
10.08.2022 01:22 21,3 C 20,0 C 16,7 C 65 % 1026,4 hPa 0,0 l/m 0 min 0 min 0 W/m 12,9 km/h (3 Bft) 97,87 %
10.08.2022 01:24 21,3 C 20,0 C 16,7 C 65 % 1026,3 hPa 0,0 l/m 0 min 0 min 0 W/m 3,2 km/h (1 Bft) 97,83 %
10.08.2022 01:26 21,3 C 20,0 C 16,7 C 65 % 1026,4 hPa 0,0 l/m 0 min 0 min 0 W/m 6,4 km/h (2 Bft) 97,87 %
10.08.2022 01:28 21,3 C 20,0 C 16,7 C 65 % 1026,4 hPa 0,0 l/m 0 min 0 min 0 W/m 16,1 km/h (3 Bft) 97,87 %
10.08.2022 01:30 21,2 C 20,0 C 16,7 C 66 % 1026,4 hPa 0,0 l/m 0 min 0 min 0 W/m 12,9 km/h (3 Bft) 95,74 %
10.08.2022 01:32 21,2 C 20,0 C 16,7 C 66 % 1026,4 hPa 0,0 l/m 0 min 0 min 0 W/m 12,9 km/h (3 Bft) 97,87 %
10.08.2022 01:34 21,2 C 20,0 C 16,7 C 66 % 1026,4 hPa 0,0 l/m 0 min 0 min 0 W/m 6,4 km/h (2 Bft) 100,00 %
10.08.2022 01:36 21,2 C 20,0 C 16,7 C 66 % 1026,4 hPa 0,0 l/m 0 min 0 min 0 W/m 12,9 km/h (3 Bft) 97,83 %
10.08.2022 01:38 21,2 C 20,0 C 16,7 C 66 % 1026,3 hPa 0,0 l/m 0 min 0 min 0 W/m 6,4 km/h (2 Bft) 100,00 %
10.08.2022 01:40 21,1 C 20,0 C 16,7 C 66 % 1026,3 hPa 0,0 l/m 0 min 0 min 0 W/m 22,5 km/h (4 Bft) 100,00 %
10.08.2022 01:42 21,1 C 20,0 C 16,7 C 66 % 1026,3 hPa 0,0 l/m 0 min 0 min 0 W/m 9,7 km/h (2 Bft) 100,00 %
10.08.2022 01:44 21,1 C 20,0 C 16,7 C 66 % 1026,3 hPa 0,0 l/m 0 min 0 min 0 W/m 16,1 km/h (3 Bft) 100,00 %
10.08.2022 01:46 21,1 C 20,0 C 16,7 C 66 % 1026,3 hPa 0,0 l/m 0 min 0 min 0 W/m 12,9 km/h (3 Bft) 100,00 %
10.08.2022 01:48 21,0 C 20,0 C 16,1 C 66 % 1026,3 hPa 0,0 l/m 0 min 0 min 0 W/m 12,9 km/h (3 Bft) 100,00 %
10.08.2022 01:50 21,0 C 20,0 C 16,1 C 66 % 1026,3 hPa 0,0 l/m 0 min 0 min 0 W/m 9,7 km/h (2 Bft) 100,00 %
10.08.2022 01:52 21,0 C 20,0 C 16,1 C 67 % 1026,3 hPa 0,0 l/m 0 min 0 min 0 W/m 6,4 km/h (2 Bft) 97,87 %
10.08.2022 01:54 20,9 C 20,0 C 16,1 C 67 % 1026,3 hPa 0,0 l/m 0 min 0 min 0 W/m 9,7 km/h (2 Bft) 100,00 %
10.08.2022 01:56 20,9 C 20,0 C 16,1 C 67 % 1026,3 hPa 0,0 l/m 0 min 0 min 0 W/m 6,4 km/h (2 Bft) 100,00 %
10.08.2022 01:58 20,9 C 19,4 C 16,1 C 67 % 1026,2 hPa 0,0 l/m 0 min 0 min 0 W/m 12,9 km/h (3 Bft) 97,87 %
10.08.2022 02:00 20,8 C 19,4 C 16,1 C 67 % 1026,3 hPa 0,0 l/m 0 min 0 min 0 W/m 6,4 km/h (2 Bft) 93,48 %
10.08.2022 02:02 20,8 C 19,4 C 16,1 C 67 % 1026,3 hPa 0,0 l/m 0 min 0 min 0 W/m 6,4 km/h (2 Bft) 97,87 %
10.08.2022 02:04 20,8 C 19,4 C 16,1 C 68 % 1026,3 hPa 0,0 l/m 0 min 0 min 0 W/m 6,4 km/h (2 Bft) 97,87 %
10.08.2022 02:06 20,7 C 19,4 C 16,1 C 68 % 1026,2 hPa 0,0 l/m 0 min 0 min 0 W/m 16,1 km/h (3 Bft) 97,87 %
10.08.2022 02:08 20,7 C 19,4 C 16,1 C 68 % 1026,3 hPa 0,0 l/m 0 min 0 min 0 W/m 6,4 km/h (2 Bft) 97,87 %
10.08.2022 02:10 20,7 C 19,4 C 15,6 C 68 % 1026,2 hPa 0,0 l/m 0 min 0 min 0 W/m 6,4 km/h (2 Bft) 97,87 %
10.08.2022 02:12 20,6 C 19,4 C 15,6 C 69 % 1026,2 hPa 0,0 l/m 0 min 0 min 0 W/m 6,4 km/h (2 Bft) 97,83 %
10.08.2022 02:14 20,5 C 18,9 C 15,6 C 69 % 1026,2 hPa 0,0 l/m 0 min 0 min 0 W/m 6,4 km/h (2 Bft) 97,87 %
10.08.2022 02:16 20,4 C 18,9 C 15,6 C 69 % 1026,1 hPa 0,0 l/m 0 min 0 min 0 W/m 6,4 km/h (2 Bft) 95,74 %
10.08.2022 02:18 20,4 C 18,9 C 15,6 C 69 % 1026,2 hPa 0,0 l/m 0 min 0 min 0 W/m 9,7 km/h (2 Bft) 97,87 %
10.08.2022 02:20 20,4 C 18,9 C 15,6 C 69 % 1026,2 hPa 0,0 l/m 0 min 0 min 0 W/m 9,7 km/h (2 Bft) 97,87 %
10.08.2022 02:22 20,3 C 18,9 C 15,6 C 69 % 1026,2 hPa 0,0 l/m 0 min 0 min 0 W/m 9,7 km/h (2 Bft) 97,83 %
10.08.2022 02:24 20,3 C 18,9 C 15,6 C 69 % 1026,2 hPa 0,0 l/m 0 min 0 min 0 W/m 3,2 km/h (1 Bft) 97,87 %
10.08.2022 02:26 20,3 C 18,9 C 15,6 C 70 % 1026,1 hPa 0,0 l/m 0 min 0 min 0 W/m 9,7 km/h (2 Bft) 97,87 %
10.08.2022 02:28 20,2 C 18,9 C 15,6 C 69 % 1026,2 hPa 0,0 l/m 0 min 0 min 0 W/m 6,4 km/h (2 Bft) 97,87 %
10.08.2022 02:30 20,2 C 18,9 C 15,6 C 69 % 1026,1 hPa 0,0 l/m 0 min 0 min 0 W/m 6,4 km/h (2 Bft) 97,87 %
10.08.2022 02:32 20,2 C 18,9 C 15,6 C 69 % 1026,2 hPa 0,0 l/m 0 min 0 min 0 W/m 3,2 km/h (1 Bft) 97,87 %
10.08.2022 02:34 20,1 C 18,9 C 15,6 C 70 % 1026,2 hPa 0,0 l/m 0 min 0 min 0 W/m 6,4 km/h (2 Bft) 95,74 %
10.08.2022 02:36 20,1 C 18,9 C 15,6 C 70 % 1026,2 hPa 0,0 l/m 0 min 0 min 0 W/m 6,4 km/h (2 Bft) 97,83 %
10.08.2022 02:38 20,1 C 18,9 C 15,6 C 70 % 1026,1 hPa 0,0 l/m 0 min 0 min 0 W/m 3,2 km/h (1 Bft) 97,87 %
10.08.2022 02:40 20,1 C 18,9 C 15,6 C 70 % 1026,1 hPa 0,0 l/m 0 min 0 min 0 W/m 9,7 km/h (2 Bft) 97,87 %
10.08.2022 02:42 20,1 C 18,9 C 15,6 C 70 % 1026,1 hPa 0,0 l/m 0 min 0 min 0 W/m 6,4 km/h (2 Bft) 95,74 %
10.08.2022 02:44 20,0 C 18,9 C 15,6 C 70 % 1026,1 hPa 0,0 l/m 0 min 0 min 0 W/m 6,4 km/h (2 Bft) 100,00 %
10.08.2022 02:46 20,0 C 18,9 C 15,6 C 70 % 1026,1 hPa 0,0 l/m 0 min 0 min 0 W/m 3,2 km/h (1 Bft) 100,00 %
10.08.2022 02:48 19,9 C 18,9 C 15,6 C 70 % 1026,1 hPa 0,0 l/m 0 min 0 min 0 W/m 6,4 km/h (2 Bft) 100,00 %
10.08.2022 02:50 19,9 C 18,9 C 15,6 C 71 % 1026,0 hPa 0,0 l/m 0 min 0 min 0 W/m 6,4 km/h (2 Bft) 91,49 %
10.08.2022 02:52 19,9 C 18,9 C 15,6 C 71 % 1026,1 hPa 0,0 l/m 0 min 0 min 0 W/m 6,4 km/h (2 Bft) 100,00 %
10.08.2022 02:54 19,9 C 18,9 C 15,0 C 71 % 1026,0 hPa 0,0 l/m 0 min 0 min 0 W/m 3,2 km/h (1 Bft) 100,00 %
10.08.2022 02:56 19,8 C 18,9 C 15,0 C 71 % 1026,0 hPa 0,0 l/m 0 min 0 min 0 W/m 6,4 km/h (2 Bft) 95,74 %
10.08.2022 02:58 19,8 C 18,3 C 15,0 C 71 % 1026,1 hPa 0,0 l/m 0 min 0 min 0 W/m 3,2 km/h (1 Bft) 95,74 %
10.08.2022 03:00 19,8 C 18,3 C 15,0 C 71 % 1026,1 hPa 0,0 l/m 0 min 0 min 0 W/m 6,4 km/h (2 Bft) 97,83 %
10.08.2022 03:02 19,7 C 18,3 C 15,0 C 71 % 1026,1 hPa 0,0 l/m 0 min 0 min 0 W/m 6,4 km/h (2 Bft) 97,87 %
10.08.2022 03:04 19,7 C 18,3 C 15,0 C 71 % 1026,1 hPa 0,0 l/m 0 min 0 min 0 W/m 3,2 km/h (1 Bft) 97,87 %
10.08.2022 03:06 19,7 C 18,9 C 15,0 C 71 % 1026,0 hPa 0,0 l/m 0 min 0 min 0 W/m 9,7 km/h (2 Bft) 97,87 %
10.08.2022 03:08 19,7 C 18,3 C 15,0 C 71 % 1026,1 hPa 0,0 l/m 0 min 0 min 0 W/m 6,4 km/h (2 Bft) 95,74 %
10.08.2022 03:10 19,6 C 18,3 C 15,0 C 72 % 1026,0 hPa 0,0 l/m 0 min 0 min 0 W/m 3,2 km/h (1 Bft) 95,74 %
10.08.2022 03:12 19,6 C 18,3 C 15,0 C 72 % 1026,0 hPa 0,0 l/m 0 min 0 min 0 W/m 6,4 km/h (2 Bft) 93,48 %
10.08.2022 03:14 19,6 C 18,3 C 15,0 C 72 % 1026,0 hPa 0,0 l/m 0 min 0 min 0 W/m 6,4 km/h (2 Bft) 95,74 %
10.08.2022 03:16 19,6 C 18,3 C 15,0 C 72 % 1026,0 hPa 0,0 l/m 0 min 0 min 0 W/m 6,4 km/h (2 Bft) 95,74 %
10.08.2022 03:18 19,6 C 18,3 C 15,0 C 72 % 1025,9 hPa 0,0 l/m 0 min 0 min 0 W/m 6,4 km/h (2 Bft) 95,74 %
10.08.2022 03:20 19,5 C 18,3 C 15,0 C 72 % 1026,0 hPa 0,0 l/m 0 min 0 min 0 W/m 9,7 km/h (2 Bft) 95,74 %
10.08.2022 03:22 19,5 C 18,3 C 15,0 C 72 % 1025,9 hPa 0,0 l/m 0 min 0 min 0 W/m 6,4 km/h (2 Bft) 95,74 %
10.08.2022 03:24 19,5 C 18,3 C 15,0 C 73 % 1025,9 hPa 0,0 l/m 0 min 0 min 0 W/m 6,4 km/h (2 Bft) 95,65 %
10.08.2022 03:26 19,4 C 18,3 C 15,0 C 72 % 1025,9 hPa 0,0 l/m 0 min 0 min 0 W/m 3,2 km/h (1 Bft) 97,87 %
10.08.2022 03:28 19,4 C 18,3 C 15,0 C 73 % 1025,9 hPa 0,0 l/m 0 min 0 min 0 W/m 6,4 km/h (2 Bft) 97,87 %
10.08.2022 03:30 19,4 C 18,3 C 15,0 C 73 % 1025,9 hPa 0,0 l/m 0 min 0 min 0 W/m 6,4 km/h (2 Bft) 97,87 %
10.08.2022 03:32 19,4 C 18,3 C 15,0 C 73 % 1025,9 hPa 0,0 l/m 0 min 0 min 0 W/m 3,2 km/h (1 Bft) 95,74 %
10.08.2022 03:34 19,4 C 18,3 C 15,0 C 73 % 1025,8 hPa 0,0 l/m 0 min 0 min 0 W/m 3,2 km/h (1 Bft) 97,87 %
10.08.2022 03:36 19,4 C 18,3 C 15,0 C 73 % 1025,8 hPa 0,0 l/m 0 min 0 min 0 W/m 3,2 km/h (1 Bft) 97,83 %
10.08.2022 03:38 19,3 C 18,3 C 15,0 C 73 % 1025,8 hPa 0,0 l/m 0 min 0 min 0 W/m 16,1 km/h (3 Bft) 95,74 %
10.08.2022 03:40 19,3 C 18,3 C 15,0 C 73 % 1025,7 hPa 0,0 l/m 0 min 0 min 0 W/m 6,4 km/h (2 Bft) 97,87 %
10.08.2022 03:42 19,3 C 18,3 C 15,0 C 73 % 1025,7 hPa 0,0 l/m 0 min 0 min 0 W/m 6,4 km/h (2 Bft) 97,87 %
10.08.2022 03:44 19,3 C 18,3 C 15,0 C 73 % 1025,8 hPa 0,0 l/m 0 min 0 min 0 W/m 6,4 km/h (2 Bft) 97,87 %
10.08.2022 03:46 19,3 C 18,3 C 15,0 C 74 % 1025,7 hPa 0,0 l/m 0 min 0 min 0 W/m 3,2 km/h (1 Bft) 97,83 %
10.08.2022 03:48 19,3 C 18,3 C 15,0 C 74 % 1025,7 hPa 0,0 l/m 0 min 0 min 0 W/m 6,4 km/h (2 Bft) 97,87 %
10.08.2022 03:50 19,3 C 18,3 C 15,0 C 74 % 1025,7 hPa 0,0 l/m 0 min 0 min 0 W/m 6,4 km/h (2 Bft) 97,87 %
10.08.2022 03:52 19,2 C 18,3 C 15,0 C 74 % 1025,7 hPa 0,0 l/m 0 min 0 min 0 W/m 6,4 km/h (2 Bft) 97,87 %
10.08.2022 03:54 19,2 C 18,3 C 15,0 C 74 % 1025,7 hPa 0,0 l/m 0 min 0 min 0 W/m 6,4 km/h (2 Bft) 100,00 %
10.08.2022 03:56 19,2 C 18,3 C 15,0 C 74 % 1025,8 hPa 0,0 l/m 0 min 0 min 0 W/m 9,7 km/h (2 Bft) 100,00 %
10.08.2022 03:58 19,2 C 18,3 C 15,0 C 74 % 1025,8 hPa 0,0 l/m 0 min 0 min 0 W/m 12,9 km/h (3 Bft) 100,00 %
10.08.2022 04:00 19,2 C 18,3 C 14,4 C 74 % 1025,8 hPa 0,0 l/m 0 min 0 min 0 W/m 9,7 km/h (2 Bft) 100,00 %
10.08.2022 04:02 19,1 C 17,8 C 14,4 C 74 % 1025,8 hPa 0,0 l/m 0 min 0 min 0 W/m 3,2 km/h (1 Bft) 94,44 %
10.08.2022 04:04 19,1 C 17,8 C 14,4 C 75 % 1025,9 hPa 0,0 l/m 0 min 0 min 0 W/m 12,9 km/h (3 Bft) 100,00 %
10.08.2022 04:06 19,1 C 17,8 C 14,4 C 75 % 1025,8 hPa 0,0 l/m 0 min 0 min 0 W/m 9,7 km/h (2 Bft) 100,00 %
10.08.2022 04:08 19,1 C 17,8 C 14,4 C 75 % 1025,8 hPa 0,0 l/m 0 min 0 min 0 W/m 3,2 km/h (1 Bft) 100,00 %
10.08.2022 04:10 19,0 C 17,8 C 14,4 C 75 % 1025,8 hPa 0,0 l/m 0 min 0 min 0 W/m 6,4 km/h (2 Bft) 100,00 %
10.08.2022 04:12 19,0 C 17,8 C 14,4 C 75 % 1025,8 hPa 0,0 l/m 0 min 0 min 0 W/m 6,4 km/h (2 Bft) 100,00 %
10.08.2022 04:14 19,0 C 17,8 C 14,4 C 75 % 1025,8 hPa 0,0 l/m 0 min 0 min 0 W/m 9,7 km/h (2 Bft) 54,55 %
10.08.2022 04:16 18,9 C 17,8 C 14,4 C 75 % 1025,8 hPa 0,0 l/m 0 min 0 min 0 W/m 3,2 km/h (1 Bft) 100,00 %
10.08.2022 04:18 18,9 C 17,8 C 14,4 C 75 % 1025,8 hPa 0,0 l/m 0 min 0 min 0 W/m 3,2 km/h (1 Bft) 97,87 %
10.08.2022 04:20 18,9 C 17,8 C 14,4 C 75 % 1025,8 hPa 0,0 l/m 0 min 0 min 0 W/m 3,2 km/h (1 Bft) 100,00 %
10.08.2022 04:22 18,8 C 17,8 C 14,4 C 76 % 1025,8 hPa 0,0 l/m 0 min 0 min 0 W/m 0,0 km/h (0 Bft) 97,87 %
10.08.2022 04:24 18,8 C 17,8 C 14,4 C 76 % 1025,8 hPa 0,0 l/m 0 min 0 min 0 W/m 3,2 km/h (1 Bft) 100,00 %
10.08.2022 04:26 18,8 C 17,8 C 14,4 C 76 % 1025,8 hPa 0,0 l/m 0 min 0 min 0 W/m 3,2 km/h (1 Bft) 100,00 %
10.08.2022 04:28 18,7 C 17,2 C 13,9 C 76 % 1025,8 hPa 0,0 l/m 0 min 0 min 0 W/m 3,2 km/h (1 Bft) 100,00 %
10.08.2022 04:30 18,7 C 17,2 C 13,9 C 76 % 1025,9 hPa 0,0 l/m 0 min 0 min 0 W/m 3,2 km/h (1 Bft) 100,00 %
10.08.2022 04:32 18,7 C 17,2 C 13,9 C 76 % 1025,9 hPa 0,0 l/m 0 min 0 min 0 W/m 3,2 km/h (1 Bft) 97,87 %
10.08.2022 04:34 18,6 C 17,2 C 13,9 C 76 % 1025,9 hPa 0,0 l/m 0 min 0 min 0 W/m 0,0 km/h (0 Bft) 97,83 %
10.08.2022 04:36 18,6 C 17,2 C 13,9 C 76 % 1025,9 hPa 0,0 l/m 0 min 0 min 0 W/m 3,2 km/h (1 Bft) 100,00 %
10.08.2022 04:38 18,6 C 17,2 C 13,9 C 77 % 1025,8 hPa 0,0 l/m 0 min 0 min 0 W/m 3,2 km/h (1 Bft) 100,00 %
10.08.2022 04:40 18,5 C 17,2 C 13,9 C 77 % 1025,8 hPa 0,0 l/m 0 min 0 min 0 W/m 3,2 km/h (1 Bft) 100,00 %
10.08.2022 04:42 18,4 C 17,2 C 13,9 C 77 % 1025,8 hPa 0,0 l/m 0 min 0 min 0 W/m 3,2 km/h (1 Bft) 97,87 %
10.08.2022 04:44 18,4 C 17,2 C 13,9 C 77 % 1025,8 hPa 0,0 l/m 0 min 0 min 0 W/m 3,2 km/h (1 Bft) 100,00 %
10.08.2022 04:46 18,4 C 17,2 C 13,9 C 77 % 1025,9 hPa 0,0 l/m 0 min 0 min 0 W/m 3,2 km/h (1 Bft) 97,83 %
10.08.2022 04:48 18,4 C 17,2 C 13,9 C 77 % 1025,9 hPa 0,0 l/m 0 min 0 min 0 W/m 6,4 km/h (2 Bft) 95,74 %
10.08.2022 04:50 18,3 C 17,2 C 13,9 C 77 % 1025,9 hPa 0,0 l/m 0 min 0 min 0 W/m 3,2 km/h (1 Bft) 95,74 %
10.08.2022 04:52 18,3 C 17,2 C 13,9 C 78 % 1025,9 hPa 0,0 l/m 0 min 0 min 0 W/m 0,0 km/h (0 Bft) 93,62 %
10.08.2022 04:54 18,2 C 17,2 C 13,3 C 77 % 1025,8 hPa 0,0 l/m 0 min 0 min 0 W/m 3,2 km/h (1 Bft) 93,62 %
10.08.2022 04:56 18,2 C 16,7 C 13,3 C 78 % 1025,8 hPa 0,0 l/m 0 min 0 min 0 W/m 6,4 km/h (2 Bft) 95,74 %
10.08.2022 04:58 18,2 C 16,7 C 13,3 C 78 % 1025,8 hPa 0,0 l/m 0 min 0 min 0 W/m 6,4 km/h (2 Bft) 95,65 %
10.08.2022 05:00 18,1 C 16,7 C 13,3 C 78 % 1025,8 hPa 0,0 l/m 0 min 0 min 0 W/m 3,2 km/h (1 Bft) 95,74 %
10.08.2022 05:02 18,1 C 16,7 C 13,3 C 78 % 1025,8 hPa 0,0 l/m 0 min 0 min 0 W/m 3,2 km/h (1 Bft) 95,74 %
10.08.2022 05:04 18,1 C 16,7 C 13,3 C 78 % 1025,8 hPa 0,0 l/m 0 min 0 min 0 W/m 0,0 km/h (0 Bft) 95,74 %
10.08.2022 05:06 18,1 C 16,7 C 13,3 C 78 % 1025,8 hPa 0,0 l/m 0 min 0 min 0 W/m 3,2 km/h (1 Bft) 95,74 %
10.08.2022 05:08 18,0 C 16,7 C 13,3 C 78 % 1025,8 hPa 0,0 l/m 0 min 0 min 0 W/m 3,2 km/h (1 Bft) 95,74 %
10.08.2022 05:10 17,9 C 16,7 C 13,3 C 79 % 1025,8 hPa 0,0 l/m 0 min 0 min 0 W/m 3,2 km/h (1 Bft) 95,65 %
10.08.2022 05:12 17,9 C 16,7 C 13,3 C 79 % 1025,8 hPa 0,0 l/m 0 min 0 min 0 W/m 3,2 km/h (1 Bft) 93,62 %
10.08.2022 05:14 17,9 C 16,7 C 13,3 C 79 % 1025,7 hPa 0,0 l/m 0 min 0 min 0 W/m 0,0 km/h (0 Bft) 95,74 %
10.08.2022 05:16 17,9 C 16,7 C 13,3 C 79 % 1025,8 hPa 0,0 l/m 0 min 0 min 0 W/m 3,2 km/h (1 Bft) 93,62 %
10.08.2022 05:18 17,8 C 16,7 C 13,3 C 79 % 1025,7 hPa 0,0 l/m 0 min 0 min 0 W/m 0,0 km/h (0 Bft) 97,87 %
10.08.2022 05:20 17,8 C 16,7 C 13,3 C 79 % 1025,7 hPa 0,0 l/m 0 min 0 min 0 W/m 3,2 km/h (1 Bft) 97,87 %
10.08.2022 05:22 17,8 C 16,7 C 13,3 C 79 % 1025,7 hPa 0,0 l/m 0 min 0 min 0 W/m 3,2 km/h (1 Bft) 97,83 %
10.08.2022 05:24 17,8 C 16,7 C 13,3 C 79 % 1025,7 hPa 0,0 l/m 0 min 0 min 0 W/m 6,4 km/h (2 Bft) 97,87 %
10.08.2022 05:26 17,8 C 16,7 C 13,3 C 79 % 1025,7 hPa 0,0 l/m 0 min 0 min 0 W/m 3,2 km/h (1 Bft) 97,87 %
10.08.2022 05:28 17,8 C 16,7 C 13,3 C 79 % 1025,7 hPa 0,0 l/m 0 min 0 min 0 W/m 0,0 km/h (0 Bft) 95,74 %
10.08.2022 05:30 17,7 C 16,7 C 13,3 C 79 % 1025,8 hPa 0,0 l/m 0 min 0 min 0 W/m 0,0 km/h (0 Bft) 97,87 %
10.08.2022 05:32 17,7 C 16,7 C 13,3 C 79 % 1025,8 hPa 0,0 l/m 0 min 0 min 0 W/m 0,0 km/h (0 Bft) 95,74 %
10.08.2022 05:34 17,7 C 16,7 C 13,3 C 80 % 1025,8 hPa 0,0 l/m 0 min 0 min 0 W/m 0,0 km/h (0 Bft) 97,83 %
10.08.2022 05:36 17,7 C 16,7 C 13,3 C 80 % 1025,8 hPa 0,0 l/m 0 min 0 min 0 W/m 3,2 km/h (1 Bft) 95,74 %
10.08.2022 05:38 17,7 C 16,7 C 12,8 C 80 % 1025,7 hPa 0,0 l/m 0 min 0 min 0 W/m 0,0 km/h (0 Bft) 98,15 %
10.08.2022 05:40 17,7 C 16,1 C 12,8 C 80 % 1025,8 hPa 0,0 l/m 0 min 0 min 0 W/m 0,0 km/h (0 Bft) 97,87 %
10.08.2022 05:42 17,6 C 16,1 C 12,8 C 80 % 1025,8 hPa 0,0 l/m 0 min 0 min 0 W/m 0,0 km/h (0 Bft) 100,00 %
10.08.2022 05:44 17,6 C 16,1 C 12,8 C 81 % 1025,7 hPa 0,0 l/m 0 min 0 min 0 W/m 0,0 km/h (0 Bft) 100,00 %
10.08.2022 05:46 17,6 C 16,1 C 12,8 C 81 % 1025,7 hPa 0,0 l/m 0 min 0 min 0 W/m 0,0 km/h (0 Bft) 97,83 %
10.08.2022 05:48 17,6 C 16,1 C 12,8 C 81 % 1025,7 hPa 0,0 l/m 0 min 0 min 0 W/m 0,0 km/h (0 Bft) 93,62 %
10.08.2022 05:50 17,6 C 16,1 C 12,8 C 81 % 1025,7 hPa 0,0 l/m 0 min 0 min 0 W/m 0,0 km/h (0 Bft) 97,87 %
10.08.2022 05:52 17,5 C 16,1 C 12,8 C 81 % 1025,8 hPa 0,0 l/m 0 min 0 min 0 W/m 0,0 km/h (0 Bft) 95,74 %
10.08.2022 05:54 17,4 C 16,1 C 12,8 C 81 % 1025,8 hPa 0,0 l/m 0 min 0 min 0 W/m 3,2 km/h (1 Bft) 97,87 %
10.08.2022 05:56 17,4 C 16,1 C 12,8 C 81 % 1025,8 hPa 0,0 l/m 0 min 0 min 0 W/m 3,2 km/h (1 Bft) 97,87 %
10.08.2022 05:58 17,4 C 16,1 C 12,8 C 81 % 1025,8 hPa 0,0 l/m 0 min 0 min 0 W/m 0,0 km/h (0 Bft) 95,65 %
10.08.2022 06:00 17,4 C 16,1 C 12,8 C 82 % 1025,8 hPa 0,0 l/m 0 min 0 min 0 W/m 0,0 km/h (0 Bft) 97,87 %
10.08.2022 06:02 17,4 C 16,1 C 12,8 C 82 % 1025,8 hPa 0,0 l/m 0 min 0 min 0 W/m 0,0 km/h (0 Bft) 95,74 %
10.08.2022 06:04 17,3 C 16,1 C 12,8 C 82 % 1025,8 hPa 0,0 l/m 0 min 0 min 0 W/m 0,0 km/h (0 Bft) 97,87 %
10.08.2022 06:08 17,3 C 15,6 C 12,8 C 82 % 1025,8 hPa 0,0 l/m 0 min 0 min 0 W/m 0,0 km/h (0 Bft) 97,65 %
10.08.2022 06:11 17,2 C 16,1 C 12,8 C 82 % 1025,8 hPa 0,0 l/m 0 min 0 min 0 W/m 0,0 km/h (0 Bft) 97,40 %
10.08.2022 06:12 17,2 C 16,1 C 12,8 C 82 % 1025,8 hPa 0,0 l/m 0 min 0 min 0 W/m 0,0 km/h (0 Bft) 100,00 %
10.08.2022 06:18 17,1 C 16,1 C 12,8 C 83 % 1025,8 hPa 0,0 l/m 0 min 0 min 0 W/m 6,4 km/h (2 Bft) 97,89 %
10.08.2022 06:20 17,1 C 16,1 C 12,8 C 83 % 1025,8 hPa 0,0 l/m 0 min 0 min 5 W/m 3,2 km/h (1 Bft) 95,74 %
10.08.2022 06:24 17,1 C 16,1 C 12,8 C 83 % 1025,8 hPa 0,0 l/m 0 min 0 min 5 W/m 0,0 km/h (0 Bft) 97,75 %
10.08.2022 06:26 17,1 C 16,1 C 12,8 C 83 % 1025,8 hPa 0,0 l/m 0 min 0 min 7 W/m 0,0 km/h (0 Bft) 100,00 %
10.08.2022 06:28 17,0 C 16,1 C 12,8 C 83 % 1025,9 hPa 0,0 l/m 0 min 0 min 7 W/m 0,0 km/h (0 Bft) 100,00 %
10.08.2022 06:30 17,0 C 16,1 C 12,8 C 83 % 1025,9 hPa 0,0 l/m 0 min 0 min 9 W/m 0,0 km/h (0 Bft) 100,00 %
10.08.2022 06:32 17,0 C 16,1 C 12,8 C 83 % 1025,9 hPa 0,0 l/m 0 min 0 min 9 W/m 0,0 km/h (0 Bft) 100,00 %
10.08.2022 06:34 17,0 C 16,1 C 12,8 C 84 % 1025,9 hPa 0,0 l/m 0 min 0 min 11 W/m 0,0 km/h (0 Bft) 97,83 %
10.08.2022 06:36 16,9 C 16,1 C 12,8 C 84 % 1025,9 hPa 0,0 l/m 0 min 0 min 11 W/m 3,2 km/h (1 Bft) 95,74 %
10.08.2022 06:38 16,9 C 16,1 C 12,8 C 84 % 1025,9 hPa 0,0 l/m 0 min 0 min 11 W/m 0,0 km/h (0 Bft) 97,87 %
10.08.2022 06:40 16,9 C 16,1 C 12,8 C 84 % 1025,9 hPa 0,0 l/m 0 min 0 min 12 W/m 3,2 km/h (1 Bft) 95,83 %
10.08.2022 06:42 16,9 C 16,1 C 12,8 C 84 % 1025,9 hPa 0,0 l/m 0 min 0 min 13 W/m 0,0 km/h (0 Bft) 95,74 %
10.08.2022 06:44 16,9 C 16,1 C 12,8 C 84 % 1025,9 hPa 0,0 l/m 0 min 0 min 14 W/m 3,2 km/h (1 Bft) 97,83 %
10.08.2022 06:46 16,9 C 16,1 C 12,8 C 84 % 1026,0 hPa 0,0 l/m 0 min 0 min 16 W/m 3,2 km/h (1 Bft) 95,74 %
10.08.2022 06:48 16,9 C 16,1 C 12,8 C 84 % 1025,9 hPa 0,0 l/m 0 min 0 min 18 W/m 0,0 km/h (0 Bft) 97,87 %
10.08.2022 06:50 16,9 C 16,1 C 12,8 C 84 % 1026,0 hPa 0,0 l/m 0 min 0 min 19 W/m 3,2 km/h (1 Bft) 97,87 %
10.08.2022 06:52 16,9 C 16,1 C 12,8 C 84 % 1025,9 hPa 0,0 l/m 0 min 0 min 21 W/m 0,0 km/h (0 Bft) 95,74 %
10.08.2022 06:54 16,9 C 16,1 C 12,8 C 84 % 1025,9 hPa 0,0 l/m 0 min 0 min 24 W/m 0,0 km/h (0 Bft) 93,62 %
10.08.2022 06:56 16,9 C 16,1 C 12,8 C 85 % 1025,9 hPa 0,0 l/m 0 min 0 min 25 W/m 0,0 km/h (0 Bft) 97,83 %
10.08.2022 06:58 16,9 C 16,1 C 12,8 C 85 % 1025,9 hPa 0,0 l/m 0 min 0 min 26 W/m 3,2 km/h (1 Bft) 95,74 %
10.08.2022 07:00 16,9 C 16,1 C 12,8 C 85 % 1025,9 hPa 0,0 l/m 0 min 0 min 28 W/m 3,2 km/h (1 Bft) 97,87 %
10.08.2022 07:02 16,9 C 16,1 C 12,8 C 85 % 1025,9 hPa 0,0 l/m 0 min 0 min 28 W/m 0,0 km/h (0 Bft) 97,87 %
10.08.2022 07:04 16,9 C 16,1 C 12,8 C 85 % 1025,9 hPa 0,0 l/m 0 min 0 min 28 W/m 3,2 km/h (1 Bft) 100,00 %
10.08.2022 07:06 16,9 C 16,1 C 12,8 C 85 % 1025,9 hPa 0,0 l/m 0 min 0 min 26 W/m 3,2 km/h (1 Bft) 100,00 %
10.08.2022 07:08 16,9 C 16,1 C 12,8 C 85 % 1025,8 hPa 0,0 l/m 0 min 0 min 26 W/m 6,4 km/h (2 Bft) 100,00 %
10.08.2022 07:10 16,9 C 16,1 C 12,8 C 85 % 1025,9 hPa 0,0 l/m 0 min 0 min 26 W/m 3,2 km/h (1 Bft) 100,00 %
10.08.2022 07:12 16,9 C 16,7 C 12,8 C 85 % 1025,9 hPa 0,0 l/m 0 min 0 min 26 W/m 3,2 km/h (1 Bft) 100,00 %
10.08.2022 07:14 16,9 C 16,7 C 12,8 C 85 % 1025,9 hPa 0,0 l/m 0 min 0 min 26 W/m 0,0 km/h (0 Bft) 100,00 %
10.08.2022 07:16 16,9 C 16,7 C 12,8 C 85 % 1025,9 hPa 0,0 l/m 0 min 0 min 26 W/m 6,4 km/h (2 Bft) 97,87 %
10.08.2022 07:18 16,9 C 16,7 C 12,8 C 85 % 1025,8 hPa 0,0 l/m 0 min 0 min 26 W/m 3,2 km/h (1 Bft) 100,00 %
10.08.2022 07:20 16,9 C 16,7 C 12,8 C 85 % 1025,8 hPa 0,0 l/m 0 min 0 min 26 W/m 0,0 km/h (0 Bft) 97,87 %
10.08.2022 07:22 17,0 C 16,7 C 12,8 C 85 % 1025,8 hPa 0,0 l/m 0 min 0 min 26 W/m 3,2 km/h (1 Bft) 97,87 %
10.08.2022 07:24 17,0 C 16,7 C 12,8 C 85 % 1025,8 hPa 0,0 l/m 0 min 0 min 26 W/m 3,2 km/h (1 Bft) 100,00 %
10.08.2022 07:26 17,0 C 16,7 C 12,8 C 85 % 1025,8 hPa 0,0 l/m 0 min 0 min 28 W/m 0,0 km/h (0 Bft) 100,00 %
10.08.2022 07:28 17,0 C 16,7 C 12,8 C 85 % 1025,8 hPa 0,0 l/m 0 min 0 min 29 W/m 3,2 km/h (1 Bft) 100,00 %
10.08.2022 07:30 17,1 C 16,7 C 12,8 C 85 % 1025,9 hPa 0,0 l/m 0 min 0 min 32 W/m 3,2 km/h (1 Bft) 100,00 %
10.08.2022 07:32 17,1 C 16,7 C 13,3 C 85 % 1025,8 hPa 0,0 l/m 0 min 0 min 32 W/m 3,2 km/h (1 Bft) 100,00 %
10.08.2022 07:34 17,1 C 16,7 C 13,3 C 85 % 1025,9 hPa 0,0 l/m 0 min 0 min 34 W/m 3,2 km/h (1 Bft) 100,00 %
10.08.2022 07:36 17,1 C 16,7 C 13,3 C 85 % 1025,9 hPa 0,0 l/m 0 min 0 min 35 W/m 3,2 km/h (1 Bft) 95,65 %
10.08.2022 07:38 17,1 C 16,7 C 13,3 C 86 % 1025,9 hPa 0,0 l/m 0 min 0 min 37 W/m 6,4 km/h (2 Bft) 100,00 %
10.08.2022 07:40 17,2 C 16,7 C 13,3 C 86 % 1025,9 hPa 0,0 l/m 0 min 0 min 38 W/m 6,4 km/h (2 Bft) 100,00 %
10.08.2022 07:42 17,2 C 16,7 C 13,3 C 86 % 1025,9 hPa 0,0 l/m 0 min 0 min 40 W/m 3,2 km/h (1 Bft) 100,00 %
10.08.2022 07:44 17,2 C 17,2 C 13,3 C 86 % 1026,0 hPa 0,0 l/m 0 min 0 min 43 W/m 3,2 km/h (1 Bft) 97,87 %
10.08.2022 07:46 17,3 C 17,2 C 13,3 C 85 % 1025,9 hPa 0,0 l/m 0 min 0 min 45 W/m 6,4 km/h (2 Bft) 100,00 %
10.08.2022 07:48 17,3 C 17,2 C 13,3 C 85 % 1026,0 hPa 0,0 l/m 0 min 0 min 46 W/m 6,4 km/h (2 Bft) 100,00 %
10.08.2022 07:50 17,3 C 17,2 C 13,9 C 85 % 1026,0 hPa 0,0 l/m 0 min 0 min 47 W/m 9,7 km/h (2 Bft) 97,87 %
10.08.2022 07:52 17,4 C 17,2 C 13,9 C 85 % 1026,0 hPa 0,0 l/m 0 min 0 min 47 W/m 6,4 km/h (2 Bft) 100,00 %
10.08.2022 07:54 17,4 C 17,2 C 13,9 C 85 % 1026,0 hPa 0,0 l/m 0 min 0 min 48 W/m 6,4 km/h (2 Bft) 100,00 %
10.08.2022 07:56 17,5 C 17,2 C 13,9 C 85 % 1026,0 hPa 0,0 l/m 0 min 0 min 49 W/m 6,4 km/h (2 Bft) 100,00 %
10.08.2022 07:58 17,6 C 17,8 C 13,9 C 84 % 1026,0 hPa 0,0 l/m 0 min 0 min 50 W/m 6,4 km/h (2 Bft) 97,87 %
10.08.2022 08:00 17,6 C 17,8 C 13,9 C 84 % 1026,0 hPa 0,0 l/m 0 min 0 min 52 W/m 6,4 km/h (2 Bft) 97,83 %
10.08.2022 08:02 17,7 C 17,8 C 13,9 C 84 % 1026,0 hPa 0,0 l/m 0 min 0 min 53 W/m 6,4 km/h (2 Bft) 95,74 %
10.08.2022 08:04 17,8 C 17,8 C 13,9 C 83 % 1026,0 hPa 0,0 l/m 0 min 0 min 54 W/m 6,4 km/h (2 Bft) 93,62 %
10.08.2022 08:06 17,8 C 17,8 C 14,4 C 83 % 1026,1 hPa 0,0 l/m 0 min 0 min 54 W/m 6,4 km/h (2 Bft) 98,04 %
10.08.2022 08:08 17,9 C 17,8 C 14,4 C 83 % 1026,1 hPa 0,0 l/m 0 min 0 min 53 W/m 6,4 km/h (2 Bft) 97,87 %
10.08.2022 08:10 17,9 C 18,3 C 14,4 C 82 % 1026,0 hPa 0,0 l/m 0 min 0 min 52 W/m 9,7 km/h (2 Bft) 97,87 %
10.08.2022 08:12 18,1 C 18,3 C 14,4 C 82 % 1026,1 hPa 0,0 l/m 0 min 0 min 50 W/m 9,7 km/h (2 Bft) 95,74 %
10.08.2022 08:14 18,1 C 18,3 C 14,4 C 82 % 1026,0 hPa 0,0 l/m 0 min 0 min 54 W/m 6,4 km/h (2 Bft) 97,87 %
10.08.2022 08:16 18,2 C 18,3 C 14,4 C 82 % 1026,0 hPa 0,0 l/m 0 min 0 min 59 W/m 9,7 km/h (2 Bft) 97,87 %
10.08.2022 08:18 18,2 C 18,3 C 14,4 C 81 % 1026,1 hPa 0,0 l/m 0 min 0 min 66 W/m 3,2 km/h (1 Bft) 95,74 %
10.08.2022 08:20 18,3 C 18,3 C 14,4 C 81 % 1026,0 hPa 0,0 l/m 0 min 0 min 79 W/m 3,2 km/h (1 Bft) 93,48 %
10.08.2022 08:22 18,3 C 18,3 C 14,4 C 80 % 1026,0 hPa 0,0 l/m 2 min 0 min 156 W/m 6,4 km/h (2 Bft) 93,62 %
10.08.2022 08:24 18,4 C 18,3 C 15,0 C 80 % 1026,0 hPa 0,0 l/m 0 min 0 min 118 W/m 3,2 km/h (1 Bft) 93,62 %
10.08.2022 08:26 18,5 C 18,9 C 15,0 C 80 % 1026,1 hPa 0,0 l/m 0 min 0 min 82 W/m 3,2 km/h (1 Bft) 93,62 %
10.08.2022 08:28 18,6 C 18,9 C 15,0 C 79 % 1026,1 hPa 0,0 l/m 0 min 0 min 85 W/m 9,7 km/h (2 Bft) 93,62 %
10.08.2022 08:30 18,7 C 18,9 C 15,0 C 79 % 1026,1 hPa 0,0 l/m 0 min 0 min 130 W/m 6,4 km/h (2 Bft) 95,74 %
10.08.2022 08:32 18,7 C 18,9 C 15,0 C 79 % 1026,1 hPa 0,0 l/m 2 min 0 min 263 W/m 9,7 km/h (2 Bft) 93,48 %
10.08.2022 08:34 18,8 C 19,4 C 15,6 C 78 % 1026,0 hPa 0,0 l/m 2 min 0 min 278 W/m 6,4 km/h (2 Bft) 93,62 %
10.08.2022 08:36 19,0 C 19,4 C 15,6 C 77 % 1026,0 hPa 0,0 l/m 2 min 0 min 245 W/m 9,7 km/h (2 Bft) 93,62 %
10.08.2022 08:38 19,1 C 19,4 C 15,6 C 77 % 1026,0 hPa 0,0 l/m 2 min 0 min 279 W/m 6,4 km/h (2 Bft) 91,49 %
10.08.2022 08:40 19,2 C 19,4 C 15,6 C 76 % 1026,1 hPa 0,0 l/m 2 min 0 min 296 W/m 9,7 km/h (2 Bft) 93,62 %
10.08.2022 08:42 19,3 C 19,4 C 15,6 C 76 % 1026,0 hPa 0,0 l/m 2 min 0 min 263 W/m 9,7 km/h (2 Bft) 93,62 %
10.08.2022 08:44 19,4 C 20,0 C 15,6 C 76 % 1026,0 hPa 0,0 l/m 2 min 0 min 256 W/m 16,1 km/h (3 Bft) 91,30 %
10.08.2022 08:46 19,5 C 20,0 C 15,6 C 75 % 1026,1 hPa 0,0 l/m 2 min 0 min 258 W/m 6,4 km/h (2 Bft) 95,74 %
10.08.2022 08:48 19,6 C 20,0 C 16,1 C 75 % 1026,0 hPa 0,0 l/m 2 min 0 min 295 W/m 6,4 km/h (2 Bft) 91,49 %
10.08.2022 08:50 19,7 C 20,0 C 16,1 C 75 % 1026,0 hPa 0,0 l/m 2 min 0 min 301 W/m 3,2 km/h (1 Bft) 93,62 %
10.08.2022 08:52 19,8 C 20,6 C 16,1 C 74 % 1026,0 hPa 0,0 l/m 2 min 0 min 280 W/m 6,4 km/h (2 Bft) 95,74 %
10.08.2022 08:54 19,9 C 21,1 C 16,1 C 75 % 1026,0 hPa 0,0 l/m 2 min 0 min 297 W/m 3,2 km/h (1 Bft) 97,62 %
10.08.2022 08:56 20,1 C 22,8 C 16,1 C 75 % 1026,0 hPa 0,0 l/m 2 min 0 min 338 W/m 6,4 km/h (2 Bft) 91,49 %
10.08.2022 08:58 20,2 C 23,9 C 16,1 C 75 % 1026,0 hPa 0,0 l/m 2 min 0 min 347 W/m 3,2 km/h (1 Bft) 97,83 %
10.08.2022 09:00 20,3 C 25,6 C 16,1 C 74 % 1026,0 hPa 0,0 l/m 2 min 0 min 366 W/m 6,4 km/h (2 Bft) 97,87 %
10.08.2022 09:02 20,5 C 26,7 C 16,1 C 74 % 1026,0 hPa 0,0 l/m 2 min 0 min 393 W/m 6,4 km/h (2 Bft) 97,87 %
10.08.2022 09:04 20,7 C 27,2 C 16,7 C 73 % 1026,0 hPa 0,0 l/m 2 min 0 min 407 W/m 16,1 km/h (3 Bft) 97,87 %
10.08.2022 09:06 20,9 C 27,8 C 17,2 C 72 % 1026,1 hPa 0,0 l/m 2 min 0 min 410 W/m 9,7 km/h (2 Bft) 96,55 %
10.08.2022 09:08 21,1 C 28,3 C 17,8 C 71 % 1026,1 hPa 0,0 l/m 2 min 0 min 416 W/m 3,2 km/h (1 Bft) 100,00 %
10.08.2022 09:10 21,4 C 28,3 C 17,8 C 70 % 1026,1 hPa 0,0 l/m 2 min 0 min 409 W/m 6,4 km/h (2 Bft) 96,00 %
10.08.2022 09:12 21,6 C 28,3 C 18,3 C 70 % 1026,0 hPa 0,0 l/m 2 min 0 min 404 W/m 9,7 km/h (2 Bft) 97,87 %
10.08.2022 09:14 21,8 C 28,3 C 18,9 C 68 % 1026,0 hPa 0,0 l/m 2 min 0 min 417 W/m 6,4 km/h (2 Bft) 100,00 %
10.08.2022 09:16 21,9 C 27,8 C 18,9 C 68 % 1026,1 hPa 0,0 l/m 2 min 0 min 375 W/m 12,9 km/h (3 Bft) 97,87 %
10.08.2022 09:18 22,1 C 28,3 C 18,9 C 68 % 1026,0 hPa 0,0 l/m 2 min 0 min 383 W/m 6,4 km/h (2 Bft) 100,00 %
10.08.2022 09:20 22,3 C 27,8 C 18,9 C 67 % 1026,0 hPa 0,0 l/m 2 min 0 min 405 W/m 6,4 km/h (2 Bft) 100,00 %
10.08.2022 09:22 22,5 C 28,3 C 19,4 C 67 % 1026,1 hPa 0,0 l/m 2 min 0 min 430 W/m 6,4 km/h (2 Bft) 100,00 %
10.08.2022 09:24 22,6 C 28,3 C 19,4 C 67 % 1026,1 hPa 0,0 l/m 2 min 0 min 447 W/m 6,4 km/h (2 Bft) 100,00 %
10.08.2022 09:26 22,8 C 28,3 C 20,0 C 66 % 1026,1 hPa 0,0 l/m 2 min 0 min 457 W/m 9,7 km/h (2 Bft) 100,00 %
10.08.2022 09:28 22,9 C 27,8 C 20,0 C 64 % 1026,1 hPa 0,0 l/m 2 min 0 min 461 W/m 12,9 km/h (3 Bft) 100,00 %
10.08.2022 09:30 23,0 C 27,8 C 19,4 C 64 % 1026,2 hPa 0,0 l/m 2 min 0 min 442 W/m 9,7 km/h (2 Bft) 95,74 %
10.08.2022 09:32 23,1 C 28,3 C 19,4 C 64 % 1026,1 hPa 0,0 l/m 2 min 0 min 431 W/m 6,4 km/h (2 Bft) 100,00 %
10.08.2022 09:34 23,2 C 27,8 C 19,4 C 64 % 1026,1 hPa 0,0 l/m 2 min 0 min 430 W/m 6,4 km/h (2 Bft) 100,00 %
10.08.2022 09:36 23,3 C 27,8 C 19,4 C 64 % 1026,2 hPa 0,0 l/m 2 min 0 min 490 W/m 6,4 km/h (2 Bft) 100,00 %
10.08.2022 09:38 23,4 C 28,3 C 19,4 C 64 % 1026,2 hPa 0,0 l/m 2 min 0 min 509 W/m 6,4 km/h (2 Bft) 100,00 %
10.08.2022 09:40 23,4 C 28,3 C 19,4 C 63 % 1026,2 hPa 0,0 l/m 2 min 0 min 490 W/m 9,7 km/h (2 Bft) 100,00 %
10.08.2022 09:42 23,5 C 27,8 C 19,4 C 63 % 1026,2 hPa 0,0 l/m 2 min 0 min 479 W/m 6,4 km/h (2 Bft) 100,00 %
10.08.2022 09:44 23,6 C 27,8 C 18,9 C 62 % 1026,1 hPa 0,0 l/m 2 min 0 min 472 W/m 6,4 km/h (2 Bft) 100,00 %
10.08.2022 09:46 23,6 C 27,2 C 18,9 C 62 % 1026,2 hPa 0,0 l/m 2 min 0 min 469 W/m 12,9 km/h (3 Bft) 100,00 %
10.08.2022 09:48 23,7 C 27,2 C 18,9 C 62 % 1026,2 hPa 0,0 l/m 2 min 0 min 469 W/m 6,4 km/h (2 Bft) 100,00 %
10.08.2022 09:50 23,7 C 27,8 C 18,9 C 63 % 1026,2 hPa 0,0 l/m 2 min 0 min 479 W/m 16,1 km/h (3 Bft) 100,00 %
10.08.2022 09:52 23,7 C 27,2 C 18,9 C 62 % 1026,3 hPa 0,0 l/m 2 min 0 min 506 W/m 9,7 km/h (2 Bft) 100,00 %
10.08.2022 09:54 23,8 C 27,2 C 18,9 C 61 % 1026,3 hPa 0,0 l/m 2 min 0 min 517 W/m 6,4 km/h (2 Bft) 100,00 %
10.08.2022 09:56 23,8 C 26,7 C 18,9 C 62 % 1026,3 hPa 0,0 l/m 2 min 0 min 503 W/m 6,4 km/h (2 Bft) 100,00 %
10.08.2022 09:58 23,9 C 26,7 C 18,9 C 61 % 1026,3 hPa 0,0 l/m 2 min 0 min 511 W/m 9,7 km/h (2 Bft) 97,87 %
10.08.2022 10:00 23,9 C 26,7 C 18,9 C 60 % 1026,3 hPa 0,0 l/m 2 min 0 min 517 W/m 3,2 km/h (1 Bft) 100,00 %
10.08.2022 10:02 24,0 C 26,7 C 18,9 C 60 % 1026,3 hPa 0,0 l/m 2 min 0 min 472 W/m 9,7 km/h (2 Bft) 100,00 %
10.08.2022 10:04 24,1 C 27,2 C 18,9 C 60 % 1026,3 hPa 0,0 l/m 2 min 0 min 469 W/m 6,4 km/h (2 Bft) 100,00 %
10.08.2022 10:06 24,1 C 26,7 C 18,9 C 61 % 1026,3 hPa 0,0 l/m 2 min 0 min 469 W/m 6,4 km/h (2 Bft) 95,65 %
10.08.2022 10:08 24,1 C 26,7 C 18,9 C 60 % 1026,3 hPa 0,0 l/m 2 min 0 min 469 W/m 9,7 km/h (2 Bft) 100,00 %
10.08.2022 10:10 24,2 C 26,1 C 18,9 C 60 % 1026,2 hPa 0,0 l/m 2 min 0 min 564 W/m 9,7 km/h (2 Bft) 100,00 %
10.08.2022 10:12 24,2 C 26,1 C 18,9 C 60 % 1026,3 hPa 0,0 l/m 2 min 0 min 576 W/m 9,7 km/h (2 Bft) 100,00 %
10.08.2022 10:14 24,3 C 26,1 C 18,9 C 60 % 1026,3 hPa 0,0 l/m 2 min 0 min 583 W/m 6,4 km/h (2 Bft) 100,00 %
10.08.2022 10:16 24,3 C 26,7 C 18,9 C 59 % 1026,3 hPa 0,0 l/m 2 min 0 min 577 W/m 9,7 km/h (2 Bft) 100,00 %
10.08.2022 10:18 24,4 C 27,2 C 19,4 C 59 % 1026,3 hPa 0,0 l/m 2 min 0 min 585 W/m 6,4 km/h (2 Bft) 100,00 %
10.08.2022 10:20 24,4 C 27,2 C 19,4 C 59 % 1026,3 hPa 0,0 l/m 2 min 0 min 569 W/m 9,7 km/h (2 Bft) 97,83 %
10.08.2022 10:22 24,5 C 27,2 C 19,4 C 59 % 1026,3 hPa 0,0 l/m 2 min 0 min 571 W/m 6,4 km/h (2 Bft) 100,00 %
10.08.2022 10:24 24,5 C 26,7 C 19,4 C 59 % 1026,3 hPa 0,0 l/m 2 min 0 min 581 W/m 6,4 km/h (2 Bft) 97,87 %
10.08.2022 10:26 24,6 C 26,7 C 19,4 C 58 % 1026,2 hPa 0,0 l/m 2 min 0 min 583 W/m 9,7 km/h (2 Bft) 97,87 %
10.08.2022 10:28 24,6 C 26,7 C 19,4 C 58 % 1026,2 hPa 0,0 l/m 2 min 0 min 594 W/m 9,7 km/h (2 Bft) 97,87 %
10.08.2022 10:30 24,6 C 26,7 C 19,4 C 58 % 1026,3 hPa 0,0 l/m 2 min 0 min 604 W/m 9,7 km/h (2 Bft) 97,87 %
10.08.2022 10:32 24,6 C 27,2 C 19,4 C 59 % 1026,2 hPa 0,0 l/m 2 min 0 min 601 W/m 6,4 km/h (2 Bft) 95,65 %
10.08.2022 10:34 24,7 C 28,3 C 19,4 C 59 % 1026,2 hPa 0,0 l/m 2 min 0 min 621 W/m 6,4 km/h (2 Bft) 95,74 %
10.08.2022 10:36 24,7 C 28,3 C 19,4 C 59 % 1026,1 hPa 0,0 l/m 2 min 0 min 579 W/m 3,2 km/h (1 Bft) 95,74 %
10.08.2022 10:38 24,8 C 27,8 C 19,4 C 58 % 1026,1 hPa 0,0 l/m 2 min 0 min 603 W/m 6,4 km/h (2 Bft) 93,62 %
10.08.2022 10:40 24,8 C 27,8 C 19,4 C 58 % 1026,1 hPa 0,0 l/m 2 min 0 min 653 W/m 3,2 km/h (1 Bft) 95,74 %
10.08.2022 10:42 24,9 C 27,2 C 20,0 C 58 % 1026,2 hPa 0,0 l/m 2 min 0 min 659 W/m 9,7 km/h (2 Bft) 93,48 %
10.08.2022 10:44 24,9 C 27,2 C 20,0 C 57 % 1026,1 hPa 0,0 l/m 2 min 0 min 660 W/m 9,7 km/h (2 Bft) 95,74 %
10.08.2022 10:46 25,1 C 27,2 C 20,0 C 57 % 1026,1 hPa 0,0 l/m 2 min 0 min 662 W/m 6,4 km/h (2 Bft) 93,62 %
10.08.2022 10:48 25,1 C 26,7 C 20,0 C 56 % 1026,1 hPa 0,0 l/m 2 min 0 min 667 W/m 6,4 km/h (2 Bft) 95,74 %
10.08.2022 10:50 25,2 C 26,1 C 20,0 C 57 % 1026,1 hPa 0,0 l/m 2 min 0 min 673 W/m 6,4 km/h (2 Bft) 93,62 %
10.08.2022 10:52 25,2 C 26,1 C 20,0 C 56 % 1026,1 hPa 0,0 l/m 2 min 0 min 677 W/m 12,9 km/h (3 Bft) 95,74 %
10.08.2022 10:54 25,2 C 25,6 C 20,0 C 55 % 1026,1 hPa 0,0 l/m 2 min 0 min 681 W/m 6,4 km/h (2 Bft) 95,74 %
10.08.2022 10:56 25,3 C 26,1 C 20,0 C 56 % 1026,1 hPa 0,0 l/m 2 min 0 min 682 W/m 3,2 km/h (1 Bft) 93,48 %
10.08.2022 10:58 25,4 C 26,1 C 20,6 C 56 % 1026,1 hPa 0,0 l/m 2 min 0 min 688 W/m 6,4 km/h (2 Bft) 95,74 %
10.08.2022 11:00 25,5 C 26,1 C 20,6 C 56 % 1026,0 hPa 0,0 l/m 2 min 0 min 695 W/m 9,7 km/h (2 Bft) 97,87 %
10.08.2022 11:02 25,6 C 26,1 C 20,6 C 55 % 1026,0 hPa 0,0 l/m 2 min 0 min 701 W/m 6,4 km/h (2 Bft) 97,87 %
10.08.2022 11:04 25,7 C 26,1 C 20,6 C 55 % 1026,0 hPa 0,0 l/m 2 min 0 min 706 W/m 9,7 km/h (2 Bft) 97,87 %
10.08.2022 11:06 25,8 C 26,1 C 20,6 C 55 % 1026,0 hPa 0,0 l/m 2 min 0 min 711 W/m 9,7 km/h (2 Bft) 97,87 %
10.08.2022 11:08 25,9 C 26,7 C 20,6 C 54 % 1025,9 hPa 0,0 l/m 2 min 0 min 716 W/m 6,4 km/h (2 Bft) 97,83 %
10.08.2022 11:10 26,0 C 26,7 C 20,6 C 54 % 1025,9 hPa 0,0 l/m 2 min 0 min 720 W/m 9,7 km/h (2 Bft) 97,87 %
10.08.2022 11:12 26,1 C 26,7 C 21,1 C 55 % 1025,9 hPa 0,0 l/m 2 min 0 min 724 W/m 6,4 km/h (2 Bft) 97,87 %
10.08.2022 11:14 26,2 C 26,7 C 21,1 C 54 % 1025,9 hPa 0,0 l/m 2 min 0 min 726 W/m 12,9 km/h (3 Bft) 97,87 %
10.08.2022 11:16 26,3 C 26,7 C 20,6 C 53 % 1025,9 hPa 0,0 l/m 2 min 0 min 729 W/m 6,4 km/h (2 Bft) 100,00 %
10.08.2022 11:18 26,3 C 26,7 C 21,1 C 53 % 1025,8 hPa 0,0 l/m 2 min 0 min 731 W/m 6,4 km/h (2 Bft) 97,83 %
10.08.2022 11:20 26,4 C 27,2 C 21,1 C 54 % 1025,8 hPa 0,0 l/m 2 min 0 min 737 W/m 6,4 km/h (2 Bft) 95,74 %
10.08.2022 11:22 26,6 C 26,7 C 21,1 C 53 % 1025,9 hPa 0,0 l/m 2 min 0 min 742 W/m 9,7 km/h (2 Bft) 95,74 %
10.08.2022 11:24 26,7 C 27,2 C 21,1 C 52 % 1025,9 hPa 0,0 l/m 2 min 0 min 736 W/m 6,4 km/h (2 Bft) 100,00 %
10.08.2022 11:26 26,7 C 27,2 C 21,1 C 51 % 1025,8 hPa 0,0 l/m 2 min 0 min 750 W/m 6,4 km/h (2 Bft) 95,74 %
10.08.2022 11:28 26,8 C 27,2 C 21,1 C 52 % 1025,8 hPa 0,0 l/m 2 min 0 min 752 W/m 9,7 km/h (2 Bft) 100,00 %
10.08.2022 11:30 26,8 C 27,8 C 21,1 C 51 % 1025,7 hPa 0,0 l/m 2 min 0 min 751 W/m 6,4 km/h (2 Bft) 100,00 %
10.08.2022 11:32 26,9 C 28,3 C 21,7 C 51 % 1025,8 hPa 0,0 l/m 2 min 0 min 741 W/m 6,4 km/h (2 Bft) 100,00 %
10.08.2022 11:34 27,0 C 28,9 C 21,7 C 51 % 1025,8 hPa 0,0 l/m 2 min 0 min 750 W/m 6,4 km/h (2 Bft) 100,00 %
10.08.2022 11:36 27,1 C 28,9 C 21,7 C 51 % 1025,8 hPa 0,0 l/m 2 min 0 min 763 W/m 9,7 km/h (2 Bft) 97,87 %
10.08.2022 11:38 27,2 C 29,4 C 21,7 C 51 % 1025,7 hPa 0,0 l/m 2 min 0 min 765 W/m 9,7 km/h (2 Bft) 100,00 %
10.08.2022 11:40 27,2 C 29,4 C 21,7 C 49 % 1025,7 hPa 0,0 l/m 2 min 0 min 769 W/m 9,7 km/h (2 Bft) 100,00 %
10.08.2022 11:42 27,4 C 29,4 C 22,2 C 50 % 1025,8 hPa 0,0 l/m 2 min 0 min 771 W/m 9,7 km/h (2 Bft) 100,00 %
10.08.2022 11:44 27,4 C 29,4 C 23,3 C 49 % 1025,7 hPa 0,0 l/m 2 min 0 min 774 W/m 6,4 km/h (2 Bft) 97,87 %
10.08.2022 11:46 27,5 C 29,4 C 23,9 C 49 % 1025,7 hPa 0,0 l/m 2 min 0 min 778 W/m 19,3 km/h (3 Bft) 97,87 %
10.08.2022 11:48 27,5 C 28,9 C 24,4 C 49 % 1025,7 hPa 0,0 l/m 2 min 0 min 781 W/m 16,1 km/h (3 Bft) 97,87 %
10.08.2022 11:50 27,5 C 28,9 C 23,9 C 49 % 1025,7 hPa 0,0 l/m 2 min 0 min 784 W/m 9,7 km/h (2 Bft) 97,87 %
10.08.2022 11:52 27,5 C 28,9 C 23,3 C 50 % 1025,7 hPa 0,0 l/m 2 min 0 min 791 W/m 12,9 km/h (3 Bft) 97,87 %
10.08.2022 11:54 27,6 C 29,4 C 23,3 C 49 % 1025,6 hPa 0,0 l/m 2 min 0 min 788 W/m 16,1 km/h (3 Bft) 95,65 %
10.08.2022 11:56 27,7 C 29,4 C 23,3 C 49 % 1025,6 hPa 0,0 l/m 2 min 0 min 789 W/m 9,7 km/h (2 Bft) 97,87 %
10.08.2022 11:58 27,8 C 29,4 C 22,8 C 48 % 1025,5 hPa 0,0 l/m 2 min 0 min 789 W/m 12,9 km/h (3 Bft) 97,87 %
10.08.2022 12:00 27,8 C 30,0 C 23,3 C 48 % 1025,5 hPa 0,0 l/m 2 min 0 min 795 W/m 6,4 km/h (2 Bft) 97,87 %
10.08.2022 12:02 27,9 C 30,0 C 23,3 C 49 % 1025,5 hPa 0,0 l/m 2 min 0 min 800 W/m 9,7 km/h (2 Bft) 97,87 %
10.08.2022 12:04 28,1 C 30,0 C 23,9 C 49 % 1025,5 hPa 0,0 l/m 2 min 0 min 811 W/m 9,7 km/h (2 Bft) 95,83 %
10.08.2022 12:08 28,4 C 30,6 C 23,9 C 48 % 1025,5 hPa 0,0 l/m 4 min 0 min 808 W/m 9,7 km/h (2 Bft) 97,85 %
10.08.2022 12:10 28,6 C 31,1 C 23,9 C 48 % 1025,4 hPa 0,0 l/m 2 min 0 min 813 W/m 12,9 km/h (3 Bft) 97,87 %
10.08.2022 12:12 28,6 C 30,6 C 23,9 C 47 % 1025,4 hPa 0,0 l/m 2 min 0 min 813 W/m 12,9 km/h (3 Bft) 97,87 %
10.08.2022 12:14 28,6 C 30,6 C 23,9 C 47 % 1025,3 hPa 0,0 l/m 2 min 0 min 813 W/m 9,7 km/h (2 Bft) 97,87 %
10.08.2022 12:16 28,6 C 30,6 C 24,4 C 47 % 1025,4 hPa 0,0 l/m 2 min 0 min 815 W/m 19,3 km/h (3 Bft) 95,74 %
10.08.2022 12:18 28,6 C 31,1 C 25,0 C 47 % 1025,4 hPa 0,0 l/m 2 min 0 min 816 W/m 12,9 km/h (3 Bft) 95,65 %
10.08.2022 12:20 28,7 C 31,1 C 25,0 C 46 % 1025,3 hPa 0,0 l/m 2 min 0 min 822 W/m 12,9 km/h (3 Bft) 95,74 %
10.08.2022 12:22 28,7 C 31,1 C 25,6 C 46 % 1025,3 hPa 0,0 l/m 2 min 0 min 821 W/m 9,7 km/h (2 Bft) 95,74 %
10.08.2022 12:24 28,8 C 31,7 C 26,7 C 46 % 1025,2 hPa 0,0 l/m 2 min 0 min 828 W/m 6,4 km/h (2 Bft) 95,74 %
10.08.2022 12:26 28,8 C 31,7 C 27,2 C 45 % 1025,2 hPa 0,0 l/m 2 min 0 min 832 W/m 12,9 km/h (3 Bft) 95,74 %
10.08.2022 12:28 28,9 C 32,2 C 28,3 C 46 % 1025,2 hPa 0,0 l/m 2 min 0 min 832 W/m 6,4 km/h (2 Bft) 100,00 %
10.08.2022 12:30 28,9 C 32,2 C 28,9 C 46 % 1025,2 hPa 0,0 l/m 2 min 0 min 843 W/m 6,4 km/h (2 Bft) 97,83 %
10.08.2022 12:32 29,1 C 32,2 C 29,4 C 46 % 1025,2 hPa 0,0 l/m 2 min 0 min 835 W/m 9,7 km/h (2 Bft) 95,74 %
10.08.2022 12:34 29,2 C 32,8 C 30,0 C 45 % 1025,2 hPa 0,0 l/m 2 min 0 min 835 W/m 6,4 km/h (2 Bft) 97,87 %
10.08.2022 12:36 29,3 C 32,8 C 31,1 C 45 % 1025,2 hPa 0,0 l/m 2 min 0 min 840 W/m 3,2 km/h (1 Bft) 97,87 %
10.08.2022 12:38 29,4 C 33,3 C 31,7 C 45 % 1025,2 hPa 0,0 l/m 2 min 0 min 841 W/m 6,4 km/h (2 Bft) 97,87 %
10.08.2022 12:40 29,6 C 32,8 C 30,6 C 45 % 1025,1 hPa 0,0 l/m 2 min 0 min 838 W/m 12,9 km/h (3 Bft) 100,00 %
10.08.2022 12:42 29,7 C 32,8 C 28,9 C 45 % 1025,1 hPa 0,0 l/m 2 min 0 min 840 W/m 12,9 km/h (3 Bft) 94,34 %
10.08.2022 12:44 29,8 C 32,8 C 27,8 C 45 % 1025,1 hPa 0,0 l/m 2 min 0 min 845 W/m 9,7 km/h (2 Bft) 97,87 %
10.08.2022 12:46 29,9 C 32,8 C 26,7 C 44 % 1025,1 hPa 0,0 l/m 2 min 0 min 824 W/m 9,7 km/h (2 Bft) 100,00 %
10.08.2022 12:48 30,0 C 33,3 C 26,7 C 44 % 1025,0 hPa 0,0 l/m 2 min 0 min 815 W/m 9,7 km/h (2 Bft) 100,00 %
10.08.2022 12:50 30,1 C 33,3 C 26,1 C 44 % 1025,0 hPa 0,0 l/m 2 min 0 min 812 W/m 9,7 km/h (2 Bft) 100,00 %
10.08.2022 12:52 30,1 C 32,8 C 25,6 C 43 % 1025,0 hPa 0,0 l/m 2 min 0 min 856 W/m 12,9 km/h (3 Bft) 100,00 %
10.08.2022 12:54 30,2 C 32,8 C 25,0 C 43 % 1025,0 hPa 0,0 l/m 2 min 0 min 860 W/m 16,1 km/h (3 Bft) 100,00 %
10.08.2022 12:56 30,2 C 32,2 C 25,0 C 43 % 1025,0 hPa 0,0 l/m 2 min 0 min 860 W/m 9,7 km/h (2 Bft) 100,00 %
10.08.2022 12:58 30,2 C 32,2 C 25,0 C 43 % 1025,0 hPa 0,0 l/m 2 min 0 min 854 W/m 9,7 km/h (2 Bft) 100,00 %
10.08.2022 13:00 30,2 C 32,2 C 24,4 C 43 % 1024,9 hPa 0,0 l/m 2 min 0 min 835 W/m 12,9 km/h (3 Bft) 100,00 %
10.08.2022 13:02 30,3 C 32,2 C 24,4 C 43 % 1024,9 hPa 0,0 l/m 2 min 0 min 855 W/m 12,9 km/h (3 Bft) 100,00 %
10.08.2022 13:04 30,3 C 31,7 C 24,4 C 42 % 1024,9 hPa 0,0 l/m 2 min 0 min 860 W/m 12,9 km/h (3 Bft) 100,00 %
10.08.2022 13:06 30,3 C 31,1 C 24,4 C 42 % 1024,8 hPa 0,0 l/m 2 min 0 min 861 W/m 16,1 km/h (3 Bft) 100,00 %
10.08.2022 13:08 30,3 C 31,1 C 24,4 C 42 % 1024,8 hPa 0,0 l/m 2 min 0 min 864 W/m 12,9 km/h (3 Bft) 100,00 %
10.08.2022 13:10 30,3 C 31,1 C 24,4 C 43 % 1024,8 hPa 0,0 l/m 2 min 0 min 865 W/m 9,7 km/h (2 Bft) 100,00 %
10.08.2022 13:12 30,3 C 31,1 C 24,4 C 44 % 1024,8 hPa 0,0 l/m 2 min 0 min 860 W/m 12,9 km/h (3 Bft) 97,87 %
10.08.2022 13:14 30,4 C 31,1 C 24,4 C 44 % 1024,9 hPa 0,0 l/m 2 min 0 min 867 W/m 12,9 km/h (3 Bft) 95,74 %
10.08.2022 13:16 30,3 C 31,1 C 24,4 C 43 % 1024,8 hPa 0,0 l/m 2 min 0 min 871 W/m 9,7 km/h (2 Bft) 93,62 %
10.08.2022 13:18 30,3 C 30,6 C 24,4 C 44 % 1024,8 hPa 0,0 l/m 2 min 0 min 869 W/m 9,7 km/h (2 Bft) 97,87 %
10.08.2022 13:20 30,4 C 30,6 C 24,4 C 43 % 1024,8 hPa 0,0 l/m 2 min 0 min 858 W/m 3,2 km/h (1 Bft) 97,87 %
10.08.2022 13:22 30,3 C 30,6 C 23,9 C 42 % 1024,7 hPa 0,0 l/m 2 min 0 min 875 W/m 6,4 km/h (2 Bft) 97,83 %
10.08.2022 13:24 30,3 C 30,6 C 24,4 C 43 % 1024,7 hPa 0,0 l/m 2 min 0 min 867 W/m 16,1 km/h (3 Bft) 95,74 %
10.08.2022 13:26 30,4 C 30,6 C 24,4 C 44 % 1024,7 hPa 0,0 l/m 2 min 0 min 850 W/m 6,4 km/h (2 Bft) 97,87 %
10.08.2022 13:28 30,6 C 31,1 C 24,4 C 43 % 1024,6 hPa 0,0 l/m 2 min 0 min 834 W/m 9,7 km/h (2 Bft) 97,87 %
10.08.2022 13:30 30,6 C 31,1 C 24,4 C 43 % 1024,6 hPa 0,0 l/m 2 min 0 min 833 W/m 9,7 km/h (2 Bft) 97,87 %
10.08.2022 13:32 30,6 C 31,7 C 24,4 C 44 % 1024,6 hPa 0,0 l/m 2 min 0 min 849 W/m 6,4 km/h (2 Bft) 97,87 %
10.08.2022 13:34 30,7 C 31,7 C 24,4 C 42 % 1024,6 hPa 0,0 l/m 2 min 0 min 868 W/m 12,9 km/h (3 Bft) 95,65 %
10.08.2022 13:36 30,7 C 31,7 C 24,4 C 43 % 1024,7 hPa 0,0 l/m 2 min 0 min 865 W/m 22,5 km/h (4 Bft) 95,74 %
10.08.2022 13:38 30,7 C 31,7 C 24,4 C 43 % 1024,6 hPa 0,0 l/m 2 min 0 min 861 W/m 12,9 km/h (3 Bft) 95,74 %
10.08.2022 13:40 30,7 C 32,2 C 24,4 C 42 % 1024,6 hPa 0,0 l/m 2 min 0 min 814 W/m 12,9 km/h (3 Bft) 98,00 %
10.08.2022 13:42 30,7 C 32,2 C 24,4 C 42 % 1024,6 hPa 0,0 l/m 2 min 0 min 845 W/m 12,9 km/h (3 Bft) 97,87 %
10.08.2022 13:44 30,7 C 32,8 C 24,4 C 43 % 1024,6 hPa 0,0 l/m 2 min 0 min 873 W/m 9,7 km/h (2 Bft) 97,83 %
10.08.2022 13:46 30,7 C 32,8 C 24,4 C 43 % 1024,5 hPa 0,0 l/m 2 min 0 min 833 W/m 9,7 km/h (2 Bft) 97,87 %
10.08.2022 13:48 30,8 C 32,8 C 25,0 C 43 % 1024,5 hPa 0,0 l/m 2 min 0 min 790 W/m 9,7 km/h (2 Bft) 95,74 %
10.08.2022 13:50 30,8 C 33,3 C 25,0 C 44 % 1024,4 hPa 0,0 l/m 2 min 0 min 822 W/m 9,7 km/h (2 Bft) 95,74 %
10.08.2022 13:52 30,9 C 33,9 C 25,0 C 42 % 1024,4 hPa 0,0 l/m 2 min 0 min 845 W/m 9,7 km/h (2 Bft) 97,87 %
10.08.2022 13:54 30,9 C 33,9 C 25,0 C 43 % 1024,4 hPa 0,0 l/m 2 min 0 min 841 W/m 16,1 km/h (3 Bft) 97,87 %
10.08.2022 13:56 30,9 C 33,3 C 25,0 C 42 % 1024,4 hPa 0,0 l/m 2 min 0 min 846 W/m 12,9 km/h (3 Bft) 100,00 %
10.08.2022 13:58 30,8 C 32,8 C 25,0 C 42 % 1024,4 hPa 0,0 l/m 2 min 0 min 862 W/m 16,1 km/h (3 Bft) 100,00 %
10.08.2022 14:00 30,8 C 32,8 C 25,0 C 42 % 1024,3 hPa 0,0 l/m 2 min 0 min 869 W/m 6,4 km/h (2 Bft) 97,87 %
10.08.2022 14:02 30,8 C 32,8 C 24,4 C 42 % 1024,3 hPa 0,0 l/m 2 min 0 min 876 W/m 6,4 km/h (2 Bft) 93,62 %
10.08.2022 14:04 30,8 C 33,3 C 25,0 C 42 % 1024,4 hPa 0,0 l/m 2 min 0 min 867 W/m 12,9 km/h (3 Bft) 95,74 %
10.08.2022 14:06 30,8 C 33,3 C 25,0 C 41 % 1024,4 hPa 0,0 l/m 2 min 0 min 862 W/m 16,1 km/h (3 Bft) 95,74 %
10.08.2022 14:08 30,8 C 32,8 C 25,0 C 42 % 1024,3 hPa 0,0 l/m 2 min 0 min 861 W/m 19,3 km/h (3 Bft) 95,65 %
10.08.2022 14:10 30,8 C 33,3 C 24,4 C 42 % 1024,3 hPa 0,0 l/m 2 min 0 min 865 W/m 16,1 km/h (3 Bft) 91,49 %
10.08.2022 14:12 30,8 C 33,3 C 25,0 C 42 % 1024,3 hPa 0,0 l/m 2 min 0 min 862 W/m 9,7 km/h (2 Bft) 95,74 %
10.08.2022 14:14 30,9 C 33,9 C 25,0 C 43 % 1024,3 hPa 0,0 l/m 2 min 0 min 862 W/m 16,1 km/h (3 Bft) 95,74 %
10.08.2022 14:16 31,0 C 33,9 C 25,0 C 42 % 1024,3 hPa 0,0 l/m 2 min 0 min 859 W/m 16,1 km/h (3 Bft) 95,74 %
10.08.2022 14:18 30,9 C 33,9 C 25,0 C 41 % 1024,2 hPa 0,0 l/m 2 min 0 min 860 W/m 9,7 km/h (2 Bft) 93,62 %
10.08.2022 14:20 31,0 C 34,4 C 25,0 C 42 % 1024,3 hPa 0,0 l/m 2 min 0 min 858 W/m 6,4 km/h (2 Bft) 95,65 %
10.08.2022 14:22 31,1 C 35,0 C 25,0 C 42 % 1024,3 hPa 0,0 l/m 2 min 0 min 856 W/m 12,9 km/h (3 Bft) 93,62 %
10.08.2022 14:24 31,1 C 34,4 C 25,0 C 42 % 1024,3 hPa 0,0 l/m 2 min 0 min 852 W/m 12,9 km/h (3 Bft) 95,74 %
10.08.2022 14:26 31,1 C 34,4 C 25,6 C 42 % 1024,2 hPa 0,0 l/m 2 min 0 min 843 W/m 9,7 km/h (2 Bft) 95,74 %
10.08.2022 14:28 31,2 C 35,0 C 25,6 C 42 % 1024,2 hPa 0,0 l/m 2 min 0 min 847 W/m 16,1 km/h (3 Bft) 97,87 %
10.08.2022 14:30 31,2 C 35,0 C 25,6 C 42 % 1024,2 hPa 0,0 l/m 2 min 0 min 858 W/m 12,9 km/h (3 Bft) 95,74 %
10.08.2022 14:32 31,3 C 35,0 C 25,0 C 41 % 1024,1 hPa 0,0 l/m 2 min 0 min 854 W/m 6,4 km/h (2 Bft) 95,65 %
10.08.2022 14:34 31,3 C 35,0 C 25,0 C 41 % 1024,2 hPa 0,0 l/m 2 min 0 min 859 W/m 12,9 km/h (3 Bft) 97,87 %
10.08.2022 14:36 31,4 C 34,4 C 25,6 C 41 % 1024,2 hPa 0,0 l/m 2 min 0 min 851 W/m 12,9 km/h (3 Bft) 97,87 %
10.08.2022 14:38 31,4 C 33,9 C 25,0 C 41 % 1024,1 hPa 0,0 l/m 2 min 0 min 849 W/m 19,3 km/h (3 Bft) 97,87 %
10.08.2022 14:40 31,4 C 33,9 C 25,0 C 41 % 1024,0 hPa 0,0 l/m 2 min 0 min 845 W/m 16,1 km/h (3 Bft) 97,87 %
10.08.2022 14:42 31,4 C 34,4 C 25,0 C 41 % 1024,0 hPa 0,0 l/m 2 min 0 min 841 W/m 12,9 km/h (3 Bft) 95,74 %
10.08.2022 14:44 31,5 C 34,4 C 25,0 C 40 % 1023,9 hPa 0,0 l/m 2 min 0 min 843 W/m 12,9 km/h (3 Bft) 97,83 %
10.08.2022 14:46 31,4 C 34,4 C 25,0 C 41 % 1023,9 hPa 0,0 l/m 2 min 0 min 835 W/m 9,7 km/h (2 Bft) 100,00 %
10.08.2022 14:48 31,5 C 34,4 C 25,0 C 41 % 1024,0 hPa 0,0 l/m 2 min 0 min 833 W/m 6,4 km/h (2 Bft) 100,00 %
10.08.2022 14:50 31,6 C 34,4 C 25,6 C 41 % 1023,9 hPa 0,0 l/m 2 min 0 min 830 W/m 16,1 km/h (3 Bft) 100,00 %
10.08.2022 14:52 31,6 C 35,0 C 25,6 C 41 % 1023,9 hPa 0,0 l/m 2 min 0 min 823 W/m 12,9 km/h (3 Bft) 100,00 %
10.08.2022 14:54 31,7 C 35,6 C 25,6 C 42 % 1023,9 hPa 0,0 l/m 2 min 0 min 826 W/m 9,7 km/h (2 Bft) 100,00 %
10.08.2022 14:56 31,7 C 35,6 C 26,1 C 41 % 1023,9 hPa 0,0 l/m 2 min 0 min 834 W/m 9,7 km/h (2 Bft) 100,00 %
10.08.2022 14:58 31,8 C 35,6 C 25,6 C 41 % 1023,9 hPa 0,0 l/m 2 min 0 min 837 W/m 9,7 km/h (2 Bft) 100,00 %
10.08.2022 15:00 31,8 C 35,6 C 25,6 C 41 % 1023,8 hPa 0,0 l/m 2 min 0 min 830 W/m 9,7 km/h (2 Bft) 97,87 %
10.08.2022 15:02 31,9 C 36,1 C 25,6 C 42 % 1023,8 hPa 0,0 l/m 2 min 0 min 829 W/m 12,9 km/h (3 Bft) 95,74 %
10.08.2022 15:04 31,9 C 35,6 C 25,6 C 40 % 1023,7 hPa 0,0 l/m 2 min 0 min 824 W/m 12,9 km/h (3 Bft) 100,00 %
10.08.2022 15:06 31,9 C 35,0 C 25,6 C 40 % 1023,7 hPa 0,0 l/m 2 min 0 min 821 W/m 16,1 km/h (3 Bft) 100,00 %
10.08.2022 15:08 31,7 C 34,4 C 25,6 C 40 % 1023,7 hPa 0,0 l/m 2 min 0 min 821 W/m 32,2 km/h (5 Bft) 100,00 %
10.08.2022 15:10 31,7 C 35,0 C 25,6 C 41 % 1023,6 hPa 0,0 l/m 2 min 0 min 820 W/m 9,7 km/h (2 Bft) 100,00 %
10.08.2022 15:12 31,7 C 34,4 C 25,6 C 41 % 1023,7 hPa 0,0 l/m 2 min 0 min 814 W/m 16,1 km/h (3 Bft) 100,00 %
10.08.2022 15:14 31,7 C 34,4 C 25,6 C 40 % 1023,7 hPa 0,0 l/m 2 min 0 min 808 W/m 25,7 km/h (4 Bft) 100,00 %
10.08.2022 15:16 31,6 C 33,9 C 25,6 C 40 % 1023,8 hPa 0,0 l/m 2 min 0 min 805 W/m 16,1 km/h (3 Bft) 100,00 %
10.08.2022 15:18 31,6 C 33,9 C 25,6 C 40 % 1023,7 hPa 0,0 l/m 2 min 0 min 802 W/m 12,9 km/h (3 Bft) 100,00 %
10.08.2022 15:20 31,5 C 33,9 C 25,6 C 40 % 1023,7 hPa 0,0 l/m 2 min 0 min 796 W/m 9,7 km/h (2 Bft) 100,00 %
10.08.2022 15:22 31,6 C 34,4 C 25,6 C 40 % 1023,6 hPa 0,0 l/m 2 min 0 min 795 W/m 16,1 km/h (3 Bft) 100,00 %
10.08.2022 15:24 31,6 C 34,4 C 25,6 C 41 % 1023,5 hPa 0,0 l/m 2 min 0 min 797 W/m 9,7 km/h (2 Bft) 100,00 %
10.08.2022 15:26 31,7 C 34,4 C 25,6 C 40 % 1023,6 hPa 0,0 l/m 2 min 0 min 798 W/m 19,3 km/h (3 Bft) 100,00 %
10.08.2022 15:28 31,7 C 35,0 C 25,6 C 41 % 1023,6 hPa 0,0 l/m 2 min 0 min 795 W/m 12,9 km/h (3 Bft) 100,00 %
10.08.2022 15:30 31,7 C 33,9 C 25,6 C 40 % 1023,6 hPa 0,0 l/m 2 min 0 min 793 W/m 19,3 km/h (3 Bft) 100,00 %
10.08.2022 15:32 31,7 C 34,4 C 25,6 C 40 % 1023,5 hPa 0,0 l/m 2 min 0 min 785 W/m 19,3 km/h (3 Bft) 97,83 %
10.08.2022 15:34 31,7 C 33,9 C 25,6 C 40 % 1023,5 hPa 0,0 l/m 2 min 0 min 779 W/m 12,9 km/h (3 Bft) 97,87 %
10.08.2022 15:36 31,6 C 33,9 C 25,6 C 39 % 1023,5 hPa 0,0 l/m 2 min 0 min 779 W/m 19,3 km/h (3 Bft) 97,87 %
10.08.2022 15:38 31,6 C 34,4 C 25,6 C 40 % 1023,5 hPa 0,0 l/m 2 min 0 min 776 W/m 16,1 km/h (3 Bft) 97,87 %
10.08.2022 15:40 31,6 C 34,4 C 25,6 C 40 % 1023,5 hPa 0,0 l/m 2 min 0 min 772 W/m 9,7 km/h (2 Bft) 95,74 %
10.08.2022 15:42 31,6 C 35,0 C 25,6 C 40 % 1023,3 hPa 0,0 l/m 2 min 0 min 769 W/m 9,7 km/h (2 Bft) 97,87 %
10.08.2022 15:44 31,7 C 35,0 C 25,6 C 40 % 1023,3 hPa 0,0 l/m 2 min 0 min 767 W/m 12,9 km/h (3 Bft) 97,83 %
10.08.2022 15:46 31,7 C 35,0 C 26,1 C 40 % 1023,3 hPa 0,0 l/m 2 min 0 min 760 W/m 19,3 km/h (3 Bft) 97,87 %
10.08.2022 15:48 31,7 C 35,6 C 26,1 C 40 % 1023,4 hPa 0,0 l/m 2 min 0 min 756 W/m 16,1 km/h (3 Bft) 97,87 %
10.08.2022 15:50 31,7 C 35,6 C 26,1 C 41 % 1023,3 hPa 0,0 l/m 2 min 0 min 751 W/m 12,9 km/h (3 Bft) 95,74 %
10.08.2022 15:52 31,8 C 35,6 C 26,1 C 40 % 1023,5 hPa 0,0 l/m 2 min 0 min 750 W/m 16,1 km/h (3 Bft) 91,49 %
10.08.2022 15:54 31,8 C 35,6 C 26,1 C 39 % 1023,3 hPa 0,0 l/m 2 min 0 min 748 W/m 12,9 km/h (3 Bft) 95,74 %
10.08.2022 15:56 31,9 C 35,6 C 26,1 C 40 % 1023,2 hPa 0,0 l/m 2 min 0 min 745 W/m 9,7 km/h (2 Bft) 95,65 %
10.08.2022 15:58 31,9 C 35,0 C 26,1 C 39 % 1023,3 hPa 0,0 l/m 2 min 0 min 743 W/m 16,1 km/h (3 Bft) 95,74 %
10.08.2022 16:00 31,9 C 35,0 C 26,1 C 39 % 1023,2 hPa 0,0 l/m 2 min 0 min 741 W/m 16,1 km/h (3 Bft) 95,74 %
10.08.2022 16:02 31,8 C 35,0 C 26,1 C 39 % 1023,2 hPa 0,0 l/m 2 min 0 min 734 W/m 12,9 km/h (3 Bft) 93,62 %
10.08.2022 16:04 31,9 C 35,0 C 26,1 C 40 % 1023,3 hPa 0,0 l/m 2 min 0 min 726 W/m 22,5 km/h (4 Bft) 95,74 %
10.08.2022 16:06 31,8 C 35,0 C 26,1 C 39 % 1023,2 hPa 0,0 l/m 2 min 0 min 722 W/m 12,9 km/h (3 Bft) 95,74 %
10.08.2022 16:08 31,8 C 35,6 C 26,1 C 39 % 1023,2 hPa 0,0 l/m 2 min 0 min 721 W/m 9,7 km/h (2 Bft) 93,48 %
10.08.2022 16:10 31,8 C 36,1 C 26,1 C 39 % 1023,2 hPa 0,0 l/m 2 min 0 min 717 W/m 29,0 km/h (5 Bft) 95,74 %
10.08.2022 16:12 31,8 C 36,7 C 26,1 C 39 % 1023,2 hPa 0,0 l/m 2 min 0 min 711 W/m 12,9 km/h (3 Bft) 95,74 %
10.08.2022 16:14 31,8 C 36,7 C 26,1 C 39 % 1023,1 hPa 0,0 l/m 2 min 0 min 707 W/m 6,4 km/h (2 Bft) 97,87 %
10.08.2022 16:16 31,9 C 37,2 C 26,1 C 40 % 1023,1 hPa 0,0 l/m 2 min 0 min 708 W/m 9,7 km/h (2 Bft) 93,62 %
10.08.2022 16:18 31,9 C 36,7 C 26,1 C 39 % 1023,2 hPa 0,0 l/m 2 min 0 min 705 W/m 16,1 km/h (3 Bft) 100,00 %
10.08.2022 16:20 32,0 C 37,2 C 26,7 C 39 % 1023,1 hPa 0,0 l/m 2 min 0 min 701 W/m 9,7 km/h (2 Bft) 100,00 %
10.08.2022 16:22 32,1 C 37,2 C 26,1 C 38 % 1023,1 hPa 0,0 l/m 2 min 0 min 693 W/m 6,4 km/h (2 Bft) 100,00 %
10.08.2022 16:24 32,1 C 37,2 C 26,1 C 38 % 1023,0 hPa 0,0 l/m 2 min 0 min 687 W/m 12,9 km/h (3 Bft) 100,00 %
10.08.2022 16:26 32,1 C 36,7 C 26,1 C 38 % 1023,0 hPa 0,0 l/m 2 min 0 min 685 W/m 9,7 km/h (2 Bft) 95,74 %
10.08.2022 16:28 32,1 C 37,8 C 26,7 C 39 % 1023,0 hPa 0,0 l/m 2 min 0 min 682 W/m 12,9 km/h (3 Bft) 100,00 %
10.08.2022 16:30 32,1 C 37,2 C 26,1 C 39 % 1023,0 hPa 0,0 l/m 2 min 0 min 676 W/m 25,7 km/h (4 Bft) 97,87 %
10.08.2022 16:32 32,1 C 37,2 C 26,7 C 39 % 1023,0 hPa 0,0 l/m 2 min 0 min 676 W/m 12,9 km/h (3 Bft) 97,83 %
10.08.2022 16:34 32,1 C 37,2 C 26,1 C 38 % 1023,0 hPa 0,0 l/m 2 min 0 min 674 W/m 25,7 km/h (4 Bft) 97,87 %
10.08.2022 16:36 32,0 C 36,7 C 26,1 C 38 % 1023,1 hPa 0,0 l/m 2 min 0 min 665 W/m 16,1 km/h (3 Bft) 100,00 %
10.08.2022 16:38 31,9 C 36,7 C 26,1 C 38 % 1023,0 hPa 0,0 l/m 2 min 0 min 661 W/m 12,9 km/h (3 Bft) 100,00 %
10.08.2022 16:40 31,9 C 36,1 C 26,1 C 38 % 1023,0 hPa 0,0 l/m 2 min 0 min 657 W/m 19,3 km/h (3 Bft) 97,87 %
10.08.2022 16:42 31,9 C 36,7 C 26,7 C 38 % 1023,0 hPa 0,0 l/m 2 min 0 min 650 W/m 16,1 km/h (3 Bft) 100,00 %
10.08.2022 16:44 31,9 C 37,2 C 26,7 C 38 % 1022,9 hPa 0,0 l/m 2 min 0 min 649 W/m 12,9 km/h (3 Bft) 100,00 %
10.08.2022 16:46 31,9 C 36,7 C 26,1 C 37 % 1023,0 hPa 0,0 l/m 2 min 0 min 646 W/m 19,3 km/h (3 Bft) 100,00 %
10.08.2022 16:48 31,9 C 37,2 C 26,7 C 38 % 1022,9 hPa 0,0 l/m 2 min 0 min 643 W/m 9,7 km/h (2 Bft) 97,87 %
10.08.2022 16:50 31,9 C 37,2 C 26,1 C 37 % 1022,9 hPa 0,0 l/m 2 min 0 min 637 W/m 16,1 km/h (3 Bft) 97,87 %
10.08.2022 16:52 31,9 C 38,3 C 26,7 C 38 % 1022,9 hPa 0,0 l/m 2 min 0 min 633 W/m 6,4 km/h (2 Bft) 97,87 %
10.08.2022 16:54 31,9 C 37,2 C 26,1 C 36 % 1022,9 hPa 0,0 l/m 2 min 0 min 632 W/m 19,3 km/h (3 Bft) 95,65 %
10.08.2022 16:56 31,9 C 37,2 C 26,1 C 38 % 1022,8 hPa 0,0 l/m 2 min 0 min 628 W/m 12,9 km/h (3 Bft) 95,74 %
10.08.2022 16:58 31,9 C 37,2 C 26,7 C 37 % 1022,8 hPa 0,0 l/m 2 min 0 min 627 W/m 12,9 km/h (3 Bft) 97,87 %
10.08.2022 17:00 31,9 C 37,2 C 26,7 C 37 % 1022,8 hPa 0,0 l/m 2 min 0 min 621 W/m 16,1 km/h (3 Bft) 97,87 %
10.08.2022 17:02 31,9 C 37,2 C 26,7 C 38 % 1022,8 hPa 0,0 l/m 2 min 0 min 610 W/m 19,3 km/h (3 Bft) 97,87 %
10.08.2022 17:04 32,0 C 37,2 C 26,7 C 38 % 1022,8 hPa 0,0 l/m 2 min 0 min 603 W/m 16,1 km/h (3 Bft) 97,87 %
10.08.2022 17:06 32,1 C 37,8 C 27,2 C 39 % 1022,8 hPa 0,0 l/m 2 min 0 min 596 W/m 6,4 km/h (2 Bft) 97,83 %
10.08.2022 17:08 32,1 C 38,3 C 27,2 C 38 % 1022,7 hPa 0,0 l/m 2 min 0 min 592 W/m 12,9 km/h (3 Bft) 97,87 %
10.08.2022 17:10 32,1 C 38,9 C 27,2 C 38 % 1022,7 hPa 0,0 l/m 2 min 0 min 588 W/m 9,7 km/h (2 Bft) 97,87 %
10.08.2022 17:12 32,1 C 39,4 C 27,2 C 38 % 1022,8 hPa 0,0 l/m 2 min 0 min 587 W/m 6,4 km/h (2 Bft) 97,87 %
10.08.2022 17:14 32,1 C 38,9 C 27,8 C 38 % 1022,8 hPa 0,0 l/m 2 min 0 min 578 W/m 16,1 km/h (3 Bft) 95,74 %
10.08.2022 17:16 32,2 C 38,9 C 27,8 C 38 % 1022,7 hPa 0,0 l/m 2 min 0 min 572 W/m 9,7 km/h (2 Bft) 97,87 %
10.08.2022 17:18 32,1 C 37,8 C 27,2 C 38 % 1022,7 hPa 0,0 l/m 2 min 0 min 568 W/m 16,1 km/h (3 Bft) 97,87 %
10.08.2022 17:20 32,1 C 37,2 C 27,2 C 38 % 1022,6 hPa 0,0 l/m 2 min 0 min 559 W/m 12,9 km/h (3 Bft) 97,83 %
10.08.2022 17:22 32,1 C 37,8 C 27,2 C 39 % 1022,6 hPa 0,0 l/m 2 min 0 min 552 W/m 12,9 km/h (3 Bft) 97,87 %
10.08.2022 17:24 32,1 C 37,8 C 27,8 C 40 % 1022,6 hPa 0,0 l/m 2 min 0 min 550 W/m 6,4 km/h (2 Bft) 95,74 %
10.08.2022 17:26 32,1 C 37,8 C 27,2 C 39 % 1022,6 hPa 0,0 l/m 2 min 0 min 550 W/m 12,9 km/h (3 Bft) 95,74 %
10.08.2022 17:28 32,0 C 37,8 C 27,2 C 38 % 1022,5 hPa 0,0 l/m 2 min 0 min 547 W/m 19,3 km/h (3 Bft) 93,62 %
10.08.2022 17:30 31,9 C 37,2 C 27,8 C 38 % 1022,5 hPa 0,0 l/m 2 min 0 min 539 W/m 19,3 km/h (3 Bft) 95,74 %
10.08.2022 17:32 31,9 C 37,2 C 27,2 C 38 % 1022,6 hPa 0,0 l/m 2 min 0 min 534 W/m 12,9 km/h (3 Bft) 95,65 %
10.08.2022 17:34 32,0 C 37,2 C 27,8 C 39 % 1022,6 hPa 0,0 l/m 2 min 0 min 528 W/m 9,7 km/h (2 Bft) 95,74 %
10.08.2022 17:36 32,0 C 37,8 C 27,8 C 38 % 1022,5 hPa 0,0 l/m 2 min 0 min 522 W/m 19,3 km/h (3 Bft) 95,74 %
10.08.2022 17:38 32,0 C 37,8 C 27,2 C 38 % 1022,5 hPa 0,0 l/m 2 min 0 min 516 W/m 9,7 km/h (2 Bft) 95,74 %
10.08.2022 17:40 32,0 C 37,2 C 27,2 C 38 % 1022,6 hPa 0,0 l/m 2 min 0 min 511 W/m 19,3 km/h (3 Bft) 95,74 %
10.08.2022 17:42 32,0 C 37,2 C 27,8 C 38 % 1022,6 hPa 0,0 l/m 2 min 0 min 506 W/m 12,9 km/h (3 Bft) 91,30 %
10.08.2022 17:44 32,0 C 37,8 C 27,8 C 39 % 1022,6 hPa 0,0 l/m 2 min 0 min 499 W/m 16,1 km/h (3 Bft) 95,74 %
10.08.2022 17:46 32,0 C 37,2 C 27,8 C 38 % 1022,5 hPa 0,0 l/m 2 min 0 min 490 W/m 12,9 km/h (3 Bft) 93,62 %
10.08.2022 17:48 32,0 C 37,2 C 27,8 C 39 % 1022,6 hPa 0,0 l/m 2 min 0 min 486 W/m 12,9 km/h (3 Bft) 97,87 %
10.08.2022 17:50 31,9 C 36,7 C 27,2 C 38 % 1022,5 hPa 0,0 l/m 2 min 0 min 482 W/m 19,3 km/h (3 Bft) 95,74 %
10.08.2022 17:52 31,9 C 36,7 C 27,2 C 38 % 1022,5 hPa 0,0 l/m 2 min 0 min 478 W/m 9,7 km/h (2 Bft) 95,74 %
10.08.2022 17:54 31,9 C 37,2 C 27,2 C 38 % 1022,5 hPa 0,0 l/m 2 min 0 min 474 W/m 16,1 km/h (3 Bft) 95,65 %
10.08.2022 17:56 32,0 C 36,7 C 27,2 C 37 % 1022,5 hPa 0,0 l/m 2 min 0 min 469 W/m 12,9 km/h (3 Bft) 97,87 %
10.08.2022 17:58 31,9 C 36,1 C 26,7 C 36 % 1022,5 hPa 0,0 l/m 2 min 0 min 461 W/m 16,1 km/h (3 Bft) 100,00 %
10.08.2022 18:00 31,8 C 36,1 C 26,7 C 37 % 1022,4 hPa 0,0 l/m 2 min 0 min 456 W/m 9,7 km/h (2 Bft) 97,87 %
10.08.2022 18:02 31,7 C 36,7 C 27,2 C 37 % 1022,4 hPa 0,0 l/m 2 min 0 min 450 W/m 16,1 km/h (3 Bft) 97,87 %
10.08.2022 18:04 31,7 C 36,1 C 27,2 C 37 % 1022,4 hPa 0,0 l/m 2 min 0 min 444 W/m 19,3 km/h (3 Bft) 97,87 %
10.08.2022 18:08 31,7 C 36,7 C 27,2 C 39 % 1022,4 hPa 0,0 l/m 4 min 0 min 437 W/m 12,9 km/h (3 Bft) 96,84 %
10.08.2022 18:10 31,7 C 36,7 C 27,8 C 38 % 1022,4 hPa 0,0 l/m 2 min 0 min 426 W/m 9,7 km/h (2 Bft) 95,74 %
10.08.2022 18:12 31,7 C 37,2 C 27,8 C 39 % 1022,4 hPa 0,0 l/m 2 min 0 min 422 W/m 12,9 km/h (3 Bft) 95,74 %
10.08.2022 18:14 31,7 C 37,2 C 27,2 C 38 % 1022,4 hPa 0,0 l/m 2 min 0 min 416 W/m 12,9 km/h (3 Bft) 97,87 %
10.08.2022 18:16 31,7 C 37,2 C 27,2 C 38 % 1022,4 hPa 0,0 l/m 2 min 0 min 410 W/m 16,1 km/h (3 Bft) 97,87 %
10.08.2022 18:18 31,7 C 37,2 C 27,2 C 39 % 1022,4 hPa 0,0 l/m 2 min 0 min 403 W/m 12,9 km/h (3 Bft) 97,83 %
10.08.2022 18:20 31,6 C 37,2 C 27,8 C 39 % 1022,4 hPa 0,0 l/m 2 min 0 min 397 W/m 16,1 km/h (3 Bft) 97,87 %
10.08.2022 18:22 31,4 C 37,2 C 27,8 C 39 % 1022,3 hPa 0,0 l/m 2 min 0 min 391 W/m 19,3 km/h (3 Bft) 95,74 %
10.08.2022 18:24 31,4 C 37,2 C 27,2 C 39 % 1022,4 hPa 0,0 l/m 2 min 0 min 384 W/m 12,9 km/h (3 Bft) 97,87 %
10.08.2022 18:26 31,3 C 36,7 C 27,2 C 39 % 1022,3 hPa 0,0 l/m 2 min 0 min 378 W/m 12,9 km/h (3 Bft) 95,74 %
10.08.2022 18:28 31,4 C 36,7 C 27,2 C 39 % 1022,4 hPa 0,0 l/m 2 min 0 min 373 W/m 9,7 km/h (2 Bft) 97,87 %
10.08.2022 18:30 31,4 C 37,2 C 26,7 C 39 % 1022,2 hPa 0,0 l/m 2 min 0 min 368 W/m 9,7 km/h (2 Bft) 97,83 %
10.08.2022 18:32 31,4 C 37,2 C 26,7 C 39 % 1022,2 hPa 0,0 l/m 2 min 0 min 365 W/m 12,9 km/h (3 Bft) 100,00 %
10.08.2022 18:34 31,4 C 36,7 C 26,7 C 39 % 1022,2 hPa 0,0 l/m 2 min 0 min 357 W/m 9,7 km/h (2 Bft) 100,00 %
10.08.2022 18:36 31,4 C 36,7 C 26,7 C 39 % 1022,2 hPa 0,0 l/m 2 min 0 min 348 W/m 16,1 km/h (3 Bft) 100,00 %
10.08.2022 18:38 31,4 C 37,2 C 26,7 C 39 % 1022,2 hPa 0,0 l/m 2 min 0 min 345 W/m 9,7 km/h (2 Bft) 100,00 %
10.08.2022 18:40 31,4 C 37,2 C 26,7 C 39 % 1022,2 hPa 0,0 l/m 2 min 0 min 339 W/m 12,9 km/h (3 Bft) 97,87 %
10.08.2022 18:42 31,4 C 37,2 C 26,1 C 39 % 1022,2 hPa 0,0 l/m 2 min 0 min 334 W/m 9,7 km/h (2 Bft) 97,83 %
10.08.2022 18:44 31,3 C 36,7 C 26,1 C 39 % 1022,2 hPa 0,0 l/m 2 min 0 min 326 W/m 16,1 km/h (3 Bft) 97,87 %
10.08.2022 18:46 31,3 C 36,7 C 26,1 C 40 % 1022,2 hPa 0,0 l/m 2 min 0 min 320 W/m 12,9 km/h (3 Bft) 100,00 %
10.08.2022 18:48 31,2 C 36,7 C 25,6 C 40 % 1022,2 hPa 0,0 l/m 2 min 0 min 313 W/m 9,7 km/h (2 Bft) 97,87 %
10.08.2022 18:50 31,2 C 36,7 C 25,6 C 40 % 1022,2 hPa 0,0 l/m 2 min 0 min 308 W/m 9,7 km/h (2 Bft) 100,00 %
10.08.2022 18:52 31,1 C 36,7 C 25,6 C 40 % 1022,2 hPa 0,0 l/m 2 min 0 min 301 W/m 9,7 km/h (2 Bft) 97,87 %
10.08.2022 18:54 31,0 C 36,7 C 25,6 C 39 % 1022,2 hPa 0,0 l/m 2 min 0 min 295 W/m 12,9 km/h (3 Bft) 100,00 %
10.08.2022 18:56 30,8 C 36,7 C 25,0 C 40 % 1022,2 hPa 0,0 l/m 2 min 0 min 289 W/m 12,9 km/h (3 Bft) 100,00 %
10.08.2022 18:58 30,7 C 35,0 C 25,0 C 40 % 1022,1 hPa 0,0 l/m 2 min 0 min 283 W/m 12,9 km/h (3 Bft) 95,74 %
10.08.2022 19:00 30,6 C 33,3 C 25,0 C 40 % 1022,1 hPa 0,0 l/m 2 min 0 min 276 W/m 9,7 km/h (2 Bft) 100,00 %
10.08.2022 19:02 30,4 C 32,2 C 25,0 C 40 % 1022,0 hPa 0,0 l/m 2 min 0 min 269 W/m 9,7 km/h (2 Bft) 100,00 %
10.08.2022 19:04 30,3 C 31,1 C 25,0 C 41 % 1022,1 hPa 0,0 l/m 2 min 0 min 264 W/m 12,9 km/h (3 Bft) 100,00 %
10.08.2022 19:06 30,2 C 30,6 C 25,0 C 41 % 1022,1 hPa 0,0 l/m 2 min 0 min 252 W/m 9,7 km/h (2 Bft) 97,83 %
10.08.2022 19:08 30,1 C 30,0 C 25,0 C 41 % 1022,1 hPa 0,0 l/m 2 min 0 min 249 W/m 9,7 km/h (2 Bft) 97,87 %
10.08.2022 19:10 30,0 C 29,4 C 25,0 C 40 % 1022,1 hPa 0,0 l/m 2 min 0 min 243 W/m 12,9 km/h (3 Bft) 97,87 %
10.08.2022 19:12 29,9 C 29,4 C 24,4 C 41 % 1022,1 hPa 0,0 l/m 2 min 0 min 237 W/m 9,7 km/h (2 Bft) 97,87 %
10.08.2022 19:14 29,8 C 29,4 C 24,4 C 41 % 1022,0 hPa 0,0 l/m 2 min 0 min 228 W/m 19,3 km/h (3 Bft) 97,87 %
10.08.2022 19:16 29,8 C 28,9 C 24,4 C 41 % 1022,0 hPa 0,0 l/m 2 min 0 min 159 W/m 12,9 km/h (3 Bft) 97,87 %
10.08.2022 19:18 29,7 C 28,9 C 24,4 C 41 % 1022,1 hPa 0,0 l/m 0 min 0 min 73 W/m 9,7 km/h (2 Bft) 97,83 %
10.08.2022 19:20 29,7 C 28,9 C 24,4 C 41 % 1022,0 hPa 0,0 l/m 0 min 0 min 55 W/m 16,1 km/h (3 Bft) 97,87 %
10.08.2022 19:22 29,6 C 28,9 C 24,4 C 42 % 1022,1 hPa 0,0 l/m 0 min 0 min 54 W/m 9,7 km/h (2 Bft) 95,74 %
10.08.2022 19:24 29,5 C 28,9 C 24,4 C 42 % 1022,0 hPa 0,0 l/m 0 min 0 min 54 W/m 12,9 km/h (3 Bft) 97,87 %
10.08.2022 19:26 29,4 C 28,9 C 24,4 C 42 % 1022,0 hPa 0,0 l/m 0 min 0 min 56 W/m 6,4 km/h (2 Bft) 97,87 %
10.08.2022 19:28 29,4 C 28,3 C 24,4 C 42 % 1022,0 hPa 0,0 l/m 0 min 0 min 55 W/m 12,9 km/h (3 Bft) 97,87 %
10.08.2022 19:30 29,3 C 28,3 C 24,4 C 43 % 1022,0 hPa 0,0 l/m 0 min 0 min 54 W/m 9,7 km/h (2 Bft) 97,83 %
10.08.2022 19:32 29,2 C 28,3 C 24,4 C 43 % 1022,0 hPa 0,0 l/m 0 min 0 min 54 W/m 16,1 km/h (3 Bft) 95,74 %
10.08.2022 19:34 29,2 C 28,3 C 23,9 C 43 % 1021,9 hPa 0,0 l/m 0 min 0 min 53 W/m 19,3 km/h (3 Bft) 97,87 %
10.08.2022 19:36 29,1 C 28,3 C 23,9 C 42 % 1022,0 hPa 0,0 l/m 0 min 0 min 51 W/m 9,7 km/h (2 Bft) 97,87 %
10.08.2022 19:38 29,1 C 28,3 C 23,9 C 42 % 1021,9 hPa 0,0 l/m 0 min 0 min 49 W/m 9,7 km/h (2 Bft) 93,62 %
10.08.2022 19:40 29,0 C 28,3 C 23,9 C 42 % 1021,9 hPa 0,0 l/m 0 min 0 min 48 W/m 12,9 km/h (3 Bft) 97,87 %
10.08.2022 19:42 28,9 C 27,8 C 23,9 C 43 % 1022,0 hPa 0,0 l/m 0 min 0 min 46 W/m 9,7 km/h (2 Bft) 100,00 %
10.08.2022 19:44 28,9 C 27,8 C 23,9 C 43 % 1022,0 hPa 0,0 l/m 0 min 0 min 45 W/m 9,7 km/h (2 Bft) 100,00 %
10.08.2022 19:46 28,8 C 27,8 C 23,9 C 43 % 1021,9 hPa 0,0 l/m 0 min 0 min 44 W/m 6,4 km/h (2 Bft) 100,00 %
10.08.2022 19:48 28,7 C 27,8 C 23,3 C 44 % 1021,9 hPa 0,0 l/m 0 min 0 min 42 W/m 6,4 km/h (2 Bft) 97,87 %
10.08.2022 19:50 28,7 C 27,8 C 23,3 C 44 % 1021,9 hPa 0,0 l/m 0 min 0 min 42 W/m 6,4 km/h (2 Bft) 100,00 %
10.08.2022 19:52 28,6 C 27,8 C 23,3 C 44 % 1022,0 hPa 0,0 l/m 0 min 0 min 42 W/m 9,7 km/h (2 Bft) 100,00 %
10.08.2022 19:54 28,5 C 27,8 C 23,3 C 42 % 1022,0 hPa 0,0 l/m 0 min 0 min 40 W/m 12,9 km/h (3 Bft) 100,00 %
10.08.2022 19:56 28,5 C 27,8 C 23,3 C 42 % 1021,9 hPa 0,0 l/m 0 min 0 min 40 W/m 9,7 km/h (2 Bft) 100,00 %
10.08.2022 19:58 28,4 C 27,8 C 23,3 C 43 % 1022,0 hPa 0,0 l/m 0 min 0 min 39 W/m 9,7 km/h (2 Bft) 100,00 %
10.08.2022 20:00 28,4 C 27,2 C 23,3 C 43 % 1021,9 hPa 0,0 l/m 0 min 0 min 37 W/m 19,3 km/h (3 Bft) 100,00 %
10.08.2022 20:02 28,3 C 27,2 C 23,3 C 43 % 1021,9 hPa 0,0 l/m 0 min 0 min 36 W/m 12,9 km/h (3 Bft) 100,00 %
10.08.2022 20:04 28,3 C 27,2 C 23,3 C 44 % 1021,9 hPa 0,0 l/m 0 min 0 min 35 W/m 9,7 km/h (2 Bft) 100,00 %
10.08.2022 20:06 28,2 C 27,2 C 23,3 C 43 % 1022,0 hPa 0,0 l/m 0 min 0 min 33 W/m 6,4 km/h (2 Bft) 100,00 %
10.08.2022 20:08 28,2 C 27,2 C 23,3 C 43 % 1021,9 hPa 0,0 l/m 0 min 0 min 32 W/m 6,4 km/h (2 Bft) 100,00 %
10.08.2022 20:10 28,1 C 27,2 C 22,8 C 43 % 1022,0 hPa 0,0 l/m 0 min 0 min 30 W/m 9,7 km/h (2 Bft) 100,00 %
10.08.2022 20:12 28,1 C 27,2 C 22,8 C 44 % 1021,9 hPa 0,0 l/m 0 min 0 min 28 W/m 12,9 km/h (3 Bft) 100,00 %
10.08.2022 20:14 28,0 C 26,7 C 22,8 C 44 % 1022,0 hPa 0,0 l/m 0 min 0 min 26 W/m 6,4 km/h (2 Bft) 97,87 %
10.08.2022 20:16 27,9 C 26,7 C 22,8 C 44 % 1021,9 hPa 0,0 l/m 0 min 0 min 25 W/m 9,7 km/h (2 Bft) 95,74 %
10.08.2022 20:18 27,8 C 26,7 C 22,8 C 44 % 1022,0 hPa 0,0 l/m 0 min 0 min 24 W/m 9,7 km/h (2 Bft) 97,83 %
10.08.2022 20:20 27,8 C 26,7 C 22,8 C 44 % 1022,0 hPa 0,0 l/m 0 min 0 min 23 W/m 12,9 km/h (3 Bft) 97,87 %
10.08.2022 20:22 27,7 C 26,7 C 22,8 C 44 % 1022,0 hPa 0,0 l/m 0 min 0 min 22 W/m 6,4 km/h (2 Bft) 97,87 %
10.08.2022 20:24 27,7 C 26,7 C 22,8 C 45 % 1022,1 hPa 0,0 l/m 0 min 0 min 21 W/m 6,4 km/h (2 Bft) 95,74 %
10.08.2022 20:26 27,6 C 26,1 C 22,2 C 45 % 1022,0 hPa 0,0 l/m 0 min 0 min 20 W/m 6,4 km/h (2 Bft) 97,87 %
10.08.2022 20:28 27,6 C 26,1 C 22,2 C 45 % 1022,1 hPa 0,0 l/m 0 min 0 min 19 W/m 6,4 km/h (2 Bft) 95,74 %
10.08.2022 20:30 27,5 C 26,1 C 22,2 C 45 % 1022,1 hPa 0,0 l/m 0 min 0 min 19 W/m 9,7 km/h (2 Bft) 97,83 %
10.08.2022 20:32 27,4 C 26,1 C 22,2 C 45 % 1022,1 hPa 0,0 l/m 0 min 0 min 18 W/m 6,4 km/h (2 Bft) 97,92 %
10.08.2022 20:34 27,3 C 26,1 C 22,2 C 45 % 1022,1 hPa 0,0 l/m 0 min 0 min 17 W/m 6,4 km/h (2 Bft) 95,74 %
10.08.2022 20:36 27,2 C 26,1 C 22,2 C 46 % 1022,1 hPa 0,0 l/m 0 min 0 min 16 W/m 6,4 km/h (2 Bft) 97,87 %
10.08.2022 20:38 27,1 C 25,6 C 21,7 C 46 % 1022,1 hPa 0,0 l/m 0 min 0 min 15 W/m 6,4 km/h (2 Bft) 95,65 %
10.08.2022 20:40 27,1 C 25,6 C 21,7 C 46 % 1022,1 hPa 0,0 l/m 0 min 0 min 14 W/m 6,4 km/h (2 Bft) 97,22 %
10.08.2022 20:42 27,0 C 25,6 C 21,7 C 47 % 1022,1 hPa 0,0 l/m 0 min 0 min 14 W/m 3,2 km/h (1 Bft) 95,65 %
10.08.2022 20:44 26,9 C 25,6 C 21,7 C 47 % 1022,2 hPa 0,0 l/m 0 min 0 min 12 W/m 3,2 km/h (1 Bft) 97,87 %
10.08.2022 20:46 26,8 C 25,6 C 21,7 C 47 % 1022,1 hPa 0,0 l/m 0 min 0 min 12 W/m 6,4 km/h (2 Bft) 96,36 %
10.08.2022 20:48 26,8 C 25,0 C 21,1 C 47 % 1022,1 hPa 0,0 l/m 0 min 0 min 11 W/m 3,2 km/h (1 Bft) 97,87 %
10.08.2022 20:50 26,7 C 25,0 C 21,1 C 48 % 1022,1 hPa 0,0 l/m 0 min 0 min 11 W/m 3,2 km/h (1 Bft) 95,74 %
10.08.2022 20:52 26,7 C 25,0 C 21,1 C 49 % 1022,2 hPa 0,0 l/m 0 min 0 min 10 W/m 3,2 km/h (1 Bft) 97,87 %
10.08.2022 20:54 26,6 C 25,0 C 21,1 C 47 % 1022,1 hPa 0,0 l/m 0 min 0 min 9 W/m 6,4 km/h (2 Bft) 97,83 %
10.08.2022 20:56 26,5 C 25,0 C 21,1 C 48 % 1022,1 hPa 0,0 l/m 0 min 0 min 9 W/m 6,4 km/h (2 Bft) 100,00 %
10.08.2022 20:58 26,4 C 25,0 C 21,1 C 48 % 1022,1 hPa 0,0 l/m 0 min 0 min 7 W/m 3,2 km/h (1 Bft) 100,00 %
10.08.2022 21:00 26,4 C 25,0 C 20,6 C 48 % 1022,2 hPa 0,0 l/m 0 min 0 min 7 W/m 3,2 km/h (1 Bft) 95,74 %
10.08.2022 21:02 26,3 C 25,0 C 20,6 C 48 % 1022,2 hPa 0,0 l/m 0 min 0 min 5 W/m 3,2 km/h (1 Bft) 97,87 %
10.08.2022 21:04 26,3 C 24,4 C 20,6 C 48 % 1022,2 hPa 0,0 l/m 0 min 0 min 5 W/m 3,2 km/h (1 Bft) 95,74 %
10.08.2022 21:06 26,2 C 24,4 C 20,6 C 49 % 1022,2 hPa 0,0 l/m 0 min 0 min 4 W/m 3,2 km/h (1 Bft) 97,83 %
10.08.2022 21:08 26,1 C 24,4 C 20,6 C 49 % 1022,2 hPa 0,0 l/m 0 min 0 min 0 W/m 3,2 km/h (1 Bft) 95,74 %
10.08.2022 21:10 26,0 C 24,4 C 20,6 C 48 % 1022,2 hPa 0,0 l/m 0 min 0 min 0 W/m 3,2 km/h (1 Bft) 95,74 %
10.08.2022 21:12 25,9 C 24,4 C 20,6 C 48 % 1022,3 hPa 0,0 l/m 0 min 0 min 0 W/m 3,2 km/h (1 Bft) 93,62 %
10.08.2022 21:14 25,9 C 24,4 C 20,6 C 49 % 1022,3 hPa 0,0 l/m 0 min 0 min 0 W/m 3,2 km/h (1 Bft) 95,74 %
10.08.2022 21:16 25,8 C 24,4 C 20,6 C 50 % 1022,2 hPa 0,0 l/m 0 min 0 min 0 W/m 3,2 km/h (1 Bft) 93,62 %
10.08.2022 21:18 25,7 C 23,9 C 20,0 C 49 % 1022,3 hPa 0,0 l/m 0 min 0 min 0 W/m 3,2 km/h (1 Bft) 95,65 %
10.08.2022 21:20 25,7 C 23,9 C 20,0 C 50 % 1022,3 hPa 0,0 l/m 0 min 0 min 0 W/m 3,2 km/h (1 Bft) 95,74 %
10.08.2022 21:22 25,6 C 23,9 C 20,0 C 51 % 1022,3 hPa 0,0 l/m 0 min 0 min 0 W/m 0,0 km/h (0 Bft) 93,62 %
10.08.2022 21:24 25,6 C 23,9 C 20,0 C 50 % 1022,4 hPa 0,0 l/m 0 min 0 min 0 W/m 0,0 km/h (0 Bft) 93,62 %
10.08.2022 21:26 25,6 C 23,9 C 20,0 C 51 % 1022,4 hPa 0,0 l/m 0 min 0 min 0 W/m 0,0 km/h (0 Bft) 95,74 %
10.08.2022 21:28 25,4 C 23,9 C 20,0 C 49 % 1022,4 hPa 0,0 l/m 0 min 0 min 0 W/m 3,2 km/h (1 Bft) 95,74 %
10.08.2022 21:30 25,4 C 23,9 C 20,0 C 51 % 1022,4 hPa 0,0 l/m 0 min 0 min 0 W/m 3,2 km/h (1 Bft) 95,65 %
10.08.2022 21:32 25,4 C 23,9 C 19,4 C 52 % 1022,4 hPa 0,0 l/m 0 min 0 min 0 W/m 3,2 km/h (1 Bft) 95,74 %
10.08.2022 21:34 25,3 C 23,9 C 19,4 C 50 % 1022,3 hPa 0,0 l/m 0 min 0 min 0 W/m 3,2 km/h (1 Bft) 95,74 %
10.08.2022 21:36 25,3 C 23,3 C 19,4 C 50 % 1022,3 hPa 0,0 l/m 0 min 0 min 0 W/m 3,2 km/h (1 Bft) 95,74 %
10.08.2022 21:38 25,2 C 23,3 C 19,4 C 51 % 1022,3 hPa 0,0 l/m 0 min 0 min 0 W/m 3,2 km/h (1 Bft) 95,74 %
10.08.2022 21:40 25,2 C 23,3 C 19,4 C 51 % 1022,4 hPa 0,0 l/m 0 min 0 min 0 W/m 3,2 km/h (1 Bft) 95,74 %
10.08.2022 21:42 25,2 C 23,3 C 19,4 C 51 % 1022,4 hPa 0,0 l/m 0 min 0 min 0 W/m 6,4 km/h (2 Bft) 97,83 %
10.08.2022 21:44 25,1 C 23,3 C 19,4 C 52 % 1022,3 hPa 0,0 l/m 0 min 0 min 0 W/m 3,2 km/h (1 Bft) 95,74 %
10.08.2022 21:46 25,0 C 23,3 C 19,4 C 51 % 1022,4 hPa 0,0 l/m 0 min 0 min 0 W/m 3,2 km/h (1 Bft) 97,87 %
10.08.2022 21:48 24,9 C 23,3 C 19,4 C 52 % 1022,5 hPa 0,0 l/m 0 min 0 min 0 W/m 3,2 km/h (1 Bft) 95,74 %
10.08.2022 21:50 24,9 C 23,3 C 19,4 C 50 % 1022,5 hPa 0,0 l/m 0 min 0 min 0 W/m 3,2 km/h (1 Bft) 95,74 %
10.08.2022 21:52 24,8 C 23,3 C 19,4 C 50 % 1022,5 hPa 0,0 l/m 0 min 0 min 0 W/m 3,2 km/h (1 Bft) 100,00 %
10.08.2022 21:54 24,8 C 23,3 C 19,4 C 51 % 1022,5 hPa 0,0 l/m 0 min 0 min 0 W/m 3,2 km/h (1 Bft) 97,83 %
10.08.2022 21:56 24,7 C 23,3 C 19,4 C 51 % 1022,5 hPa 0,0 l/m 0 min 0 min 0 W/m 3,2 km/h (1 Bft) 100,00 %
10.08.2022 21:58 24,7 C 23,3 C 19,4 C 53 % 1022,5 hPa 0,0 l/m 0 min 0 min 0 W/m 3,2 km/h (1 Bft) 100,00 %
10.08.2022 22:00 24,6 C 23,3 C 18,9 C 53 % 1022,5 hPa 0,0 l/m 0 min 0 min 0 W/m 3,2 km/h (1 Bft) 100,00 %
10.08.2022 22:02 24,6 C 23,3 C 18,9 C 54 % 1022,5 hPa 0,0 l/m 0 min 0 min 0 W/m 3,2 km/h (1 Bft) 97,87 %
10.08.2022 22:04 24,5 C 23,3 C 18,9 C 52 % 1022,5 hPa 0,0 l/m 0 min 0 min 0 W/m 3,2 km/h (1 Bft) 97,87 %
10.08.2022 22:06 24,5 C 22,8 C 18,9 C 53 % 1022,5 hPa 0,0 l/m 0 min 0 min 0 W/m 3,2 km/h (1 Bft) 100,00 %
10.08.2022 22:08 24,4 C 23,3 C 18,9 C 52 % 1022,5 hPa 0,0 l/m 0 min 0 min 0 W/m 3,2 km/h (1 Bft) 100,00 %
10.08.2022 22:10 24,4 C 22,8 C 18,9 C 53 % 1022,5 hPa 0,0 l/m 0 min 0 min 0 W/m 3,2 km/h (1 Bft) 97,87 %
10.08.2022 22:12 24,4 C 22,8 C 18,9 C 53 % 1022,6 hPa 0,0 l/m 0 min 0 min 0 W/m 3,2 km/h (1 Bft) 100,00 %
10.08.2022 22:14 24,3 C 22,8 C 18,9 C 53 % 1022,5 hPa 0,0 l/m 0 min 0 min 0 W/m 6,4 km/h (2 Bft) 100,00 %
10.08.2022 22:16 24,3 C 22,8 C 18,9 C 53 % 1022,6 hPa 0,0 l/m 0 min 0 min 0 W/m 3,2 km/h (1 Bft) 100,00 %
10.08.2022 22:18 24,2 C 22,8 C 18,9 C 53 % 1022,6 hPa 0,0 l/m 0 min 0 min 0 W/m 3,2 km/h (1 Bft) 100,00 %
10.08.2022 22:20 24,2 C 22,8 C 18,9 C 53 % 1022,6 hPa 0,0 l/m 0 min 0 min 0 W/m 3,2 km/h (1 Bft) 100,00 %
10.08.2022 22:22 24,2 C 22,8 C 18,9 C 54 % 1022,5 hPa 0,0 l/m 0 min 0 min 0 W/m 3,2 km/h (1 Bft) 100,00 %
10.08.2022 22:24 24,1 C 22,8 C 18,9 C 54 % 1022,6 hPa 0,0 l/m 0 min 0 min 0 W/m 6,4 km/h (2 Bft) 100,00 %
10.08.2022 22:26 24,1 C 22,8 C 18,9 C 53 % 1022,6 hPa 0,0 l/m 0 min 0 min 0 W/m 3,2 km/h (1 Bft) 100,00 %
10.08.2022 22:28 24,1 C 22,8 C 18,9 C 53 % 1022,5 hPa 0,0 l/m 0 min 0 min 0 W/m 3,2 km/h (1 Bft) 97,87 %
10.08.2022 22:30 24,1 C 22,8 C 18,9 C 54 % 1022,5 hPa 0,0 l/m 0 min 0 min 0 W/m 3,2 km/h (1 Bft) 100,00 %
10.08.2022 22:32 24,0 C 22,8 C 18,9 C 54 % 1022,5 hPa 0,0 l/m 0 min 0 min 0 W/m 3,2 km/h (1 Bft) 100,00 %
10.08.2022 22:34 23,9 C 22,8 C 18,9 C 55 % 1022,6 hPa 0,0 l/m 0 min 0 min 0 W/m 3,2 km/h (1 Bft) 100,00 %
10.08.2022 22:36 23,9 C 22,8 C 18,9 C 54 % 1022,6 hPa 0,0 l/m 0 min 0 min 0 W/m 6,4 km/h (2 Bft) 100,00 %
10.08.2022 22:38 23,9 C 22,8 C 18,9 C 54 % 1022,6 hPa 0,0 l/m 0 min 0 min 0 W/m 3,2 km/h (1 Bft) 95,74 %
10.08.2022 22:40 23,9 C 22,8 C 18,3 C 55 % 1022,6 hPa 0,0 l/m 0 min 0 min 0 W/m 3,2 km/h (1 Bft) 100,00 %
10.08.2022 22:42 23,8 C 22,2 C 18,3 C 55 % 1022,6 hPa 0,0 l/m 0 min 0 min 0 W/m 3,2 km/h (1 Bft) 100,00 %
10.08.2022 22:44 23,8 C 22,2 C 18,3 C 54 % 1022,6 hPa 0,0 l/m 0 min 0 min 0 W/m 3,2 km/h (1 Bft) 100,00 %
10.08.2022 22:46 23,8 C 22,8 C 18,3 C 55 % 1022,6 hPa 0,0 l/m 0 min 0 min 0 W/m 3,2 km/h (1 Bft) 100,00 %
10.08.2022 22:48 23,8 C 22,2 C 18,3 C 55 % 1022,7 hPa 0,0 l/m 0 min 0 min 0 W/m 6,4 km/h (2 Bft) 100,00 %
10.08.2022 22:50 23,7 C 22,2 C 18,3 C 55 % 1022,7 hPa 0,0 l/m 0 min 0 min 0 W/m 3,2 km/h (1 Bft) 100,00 %
10.08.2022 22:52 23,7 C 22,2 C 18,3 C 56 % 1022,7 hPa 0,0 l/m 0 min 0 min 0 W/m 3,2 km/h (1 Bft) 97,87 %
10.08.2022 22:54 23,6 C 22,2 C 18,3 C 55 % 1022,6 hPa 0,0 l/m 0 min 0 min 0 W/m 3,2 km/h (1 Bft) 97,83 %
10.08.2022 22:56 23,6 C 22,2 C 18,3 C 56 % 1022,7 hPa 0,0 l/m 0 min 0 min 0 W/m 3,2 km/h (1 Bft) 97,87 %
10.08.2022 22:58 23,6 C 22,2 C 18,3 C 56 % 1022,6 hPa 0,0 l/m 0 min 0 min 0 W/m 3,2 km/h (1 Bft) 97,87 %
10.08.2022 23:00 23,5 C 22,2 C 18,3 C 55 % 1022,7 hPa 0,0 l/m 0 min 0 min 0 W/m 3,2 km/h (1 Bft) 97,87 %
10.08.2022 23:02 23,4 C 22,2 C 18,3 C 55 % 1022,7 hPa 0,0 l/m 0 min 0 min 0 W/m 3,2 km/h (1 Bft) 93,62 %
10.08.2022 23:04 23,4 C 22,2 C 18,3 C 55 % 1022,6 hPa 0,0 l/m 0 min 0 min 0 W/m 3,2 km/h (1 Bft) 95,65 %
10.08.2022 23:06 23,4 C 22,2 C 18,3 C 56 % 1022,6 hPa 0,0 l/m 0 min 0 min 0 W/m 3,2 km/h (1 Bft) 93,62 %
10.08.2022 23:08 23,3 C 22,2 C 18,3 C 57 % 1022,7 hPa 0,0 l/m 0 min 0 min 0 W/m 3,2 km/h (1 Bft) 95,74 %
10.08.2022 23:10 23,3 C 22,2 C 18,3 C 57 % 1022,7 hPa 0,0 l/m 0 min 0 min 0 W/m 3,2 km/h (1 Bft) 95,74 %
10.08.2022 23:12 23,3 C 22,2 C 18,3 C 57 % 1022,7 hPa 0,0 l/m 0 min 0 min 0 W/m 3,2 km/h (1 Bft) 95,74 %
10.08.2022 23:14 23,2 C 22,2 C 18,3 C 56 % 1022,7 hPa 0,0 l/m 0 min 0 min 0 W/m 6,4 km/h (2 Bft) 95,74 %
10.08.2022 23:16 23,2 C 22,2 C 18,3 C 56 % 1022,7 hPa 0,0 l/m 0 min 0 min 0 W/m 3,2 km/h (1 Bft) 93,48 %
10.08.2022 23:18 23,2 C 22,2 C 18,3 C 56 % 1022,7 hPa 0,0 l/m 0 min 0 min 0 W/m 0,0 km/h (0 Bft) 95,74 %
10.08.2022 23:20 23,1 C 22,2 C 18,3 C 56 % 1022,6 hPa 0,0 l/m 0 min 0 min 0 W/m 3,2 km/h (1 Bft) 95,74 %
10.08.2022 23:22 23,1 C 22,2 C 18,3 C 55 % 1022,7 hPa 0,0 l/m 0 min 0 min 0 W/m 6,4 km/h (2 Bft) 93,62 %
10.08.2022 23:24 23,1 C 22,2 C 18,3 C 56 % 1022,7 hPa 0,0 l/m 0 min 0 min 0 W/m 3,2 km/h (1 Bft) 95,74 %
10.08.2022 23:26 23,1 C 22,2 C 18,3 C 56 % 1022,6 hPa 0,0 l/m 0 min 0 min 0 W/m 0,0 km/h (0 Bft) 95,74 %
10.08.2022 23:28 23,1 C 22,2 C 18,3 C 56 % 1022,6 hPa 0,0 l/m 0 min 0 min 0 W/m 3,2 km/h (1 Bft) 95,65 %
10.08.2022 23:30 23,1 C 21,7 C 17,8 C 58 % 1022,6 hPa 0,0 l/m 0 min 0 min 0 W/m 3,2 km/h (1 Bft) 95,74 %
10.08.2022 23:32 23,0 C 21,7 C 17,8 C 57 % 1022,6 hPa 0,0 l/m 0 min 0 min 0 W/m 0,0 km/h (0 Bft) 95,74 %
10.08.2022 23:34 23,0 C 21,7 C 17,8 C 57 % 1022,6 hPa 0,0 l/m 0 min 0 min 0 W/m 3,2 km/h (1 Bft) 95,74 %
10.08.2022 23:36 22,9 C 21,7 C 17,8 C 56 % 1022,6 hPa 0,0 l/m 0 min 0 min 0 W/m 3,2 km/h (1 Bft) 95,74 %
10.08.2022 23:38 22,9 C 21,7 C 17,8 C 57 % 1022,6 hPa 0,0 l/m 0 min 0 min 0 W/m 3,2 km/h (1 Bft) 97,87 %
10.08.2022 23:40 22,9 C 21,7 C 17,8 C 57 % 1022,7 hPa 0,0 l/m 0 min 0 min 0 W/m 3,2 km/h (1 Bft) 100,00 %
10.08.2022 23:42 22,9 C 21,7 C 17,8 C 57 % 1022,7 hPa 0,0 l/m 0 min 0 min 0 W/m 0,0 km/h (0 Bft) 100,00 %
10.08.2022 23:44 22,8 C 21,7 C 17,8 C 57 % 1022,6 hPa 0,0 l/m 0 min 0 min 0 W/m 3,2 km/h (1 Bft) 97,87 %
10.08.2022 23:46 22,8 C 21,7 C 17,8 C 56 % 1022,6 hPa 0,0 l/m 0 min 0 min 0 W/m 3,2 km/h (1 Bft) 97,87 %
10.08.2022 23:48 22,8 C 21,7 C 17,8 C 57 % 1022,7 hPa 0,0 l/m 0 min 0 min 0 W/m 3,2 km/h (1 Bft) 100,00 %
10.08.2022 23:50 22,7 C 21,7 C 17,8 C 57 % 1022,6 hPa 0,0 l/m 0 min 0 min 0 W/m 3,2 km/h (1 Bft) 100,00 %
10.08.2022 23:52 22,7 C 21,7 C 17,8 C 57 % 1022,6 hPa 0,0 l/m 0 min 0 min 0 W/m 3,2 km/h (1 Bft) 100,00 %
10.08.2022 23:54 22,7 C 21,7 C 17,8 C 57 % 1022,7 hPa 0,0 l/m 0 min 0 min 0 W/m 3,2 km/h (1 Bft) 97,87 %
10.08.2022 23:56 22,6 C 21,1 C 17,8 C 57 % 1022,6 hPa 0,0 l/m 0 min 0 min 0 W/m 3,2 km/h (1 Bft) 97,87 %
10.08.2022 23:58 22,6 C 21,1 C 17,8 C 57 % 1022,5 hPa 0,0 l/m 0 min 0 min 0 W/m 3,2 km/h (1 Bft) 98,00 %
_ Min-Zeit 06:36 06:08 05:38 16:54 19:34 - - - - 00:02 00:02
Minimum _ 16,9 C 15,6 C 12,8 C 36 % 1021,9 hPa - - - - 0,0 km/h (0 Bft) 13,33 %
_ Max-Zeit 17:16 17:12 12:38 07:38 01:02 00:00 12:08 00:00 14:02 15:08 00:00
Maximum _ 32,2 C 39,4 C 31,7 C 86 % 1026,5 hPa 0,0 l/m 4 min 0 min 876 W/m 32,2 km/h
NO (5 Bft)
100,00 %
Durchschnitt _ 24,7 C 25,6 C 19,9 C 58 % 1024,6 hPa #0,0 l/m #10:48 h #0 min. 476 W/m 8,0 km/h (2 Bft) 97,44 %
© 2022 W. Hausmann